N4ASP-13 Weather Reports


Display with metric or nautical units.
time (UTC)temp
F
wind
direction
speed
MPH
gust
MPH
rain 1hr
in
rain 24hr
in
rain mn
in
humidity
%
barometer
mb
20260831044722 71 148 0.0 0.0 0.00 0.00 0.00 89 1022.8
20260831044622 71 149 0.0 0.0 0.00 0.00 0.00 89 1022.8
20260831044522 71 150 0.0 0.0 0.00 0.00 0.00 89 1022.9
20260831044423 71 148 0.0 0.0 0.00 0.00 0.00 89 1022.9
20260831044322 71 148 0.0 0.0 0.00 0.00 0.00 89 1022.8
20260831044215 71 146 0.0 0.0 0.00 0.00 0.00 89 1022.8
20260831044112 71 146 0.0 0.0 0.00 0.00 0.00 89 1022.8
20260831044011 71 146 0.0 0.0 0.00 0.00 0.00 89 1022.8
20260831043912 71 149 0.0 0.0 0.00 0.00 0.00 89 1022.8
20260831043813 71 148 0.0 0.0 0.00 0.00 0.00 89 1022.8
20260831043706 71 149 0.0 0.0 0.00 0.00 0.00 89 1022.9
20260831043606 71 146 0.0 0.0 0.00 0.00 0.00 89 1022.8
20260831043507 71 146 0.0 0.0 0.00 0.00 0.00 89 1022.8
20260831043405 71 150 0.0 0.0 0.00 0.00 0.00 89 1022.9
20260831043306 71 148 0.0 0.0 0.00 0.00 0.00 88 1022.9
20260831043200 71 147 0.0 0.0 0.00 0.00 0.00 88 1022.9
20260831043100 71 143 0.0 0.0 0.00 0.00 0.00 88 1023.0
20260831043001 71 150 0.0 0.0 0.00 0.00 0.00 88 1023.0
20260831042901 71 148 0.0 0.0 0.00 0.00 0.00 88 1022.9
20260831042800 71 147 0.0 0.0 0.00 0.00 0.00 88 1022.9
20260831042650 71 148 0.0 0.0 0.00 0.00 0.00 88 1022.8
20260831042551 71 149 0.0 0.0 0.00 0.00 0.00 88 1022.9
20260831042450 71 149 0.0 0.0 0.00 0.00 0.00 88 1022.9
20260831042351 71 148 0.0 0.0 0.00 0.00 0.00 88 1022.9
20260831042250 71 149 0.0 0.0 0.00 0.00 0.00 88 1022.9
20260831042144 71 148 0.0 0.0 0.00 0.00 0.00 88 1022.9
20260831042045 71 149 0.0 0.0 0.00 0.00 0.00 88 1022.9
20260831041945 71 150 0.0 0.0 0.00 0.00 0.00 88 1023.0
20260831041844 71 148 0.0 0.0 0.00 0.00 0.00 88 1022.8
20260831041744 71 148 0.0 0.0 0.00 0.00 0.00 88 1022.9
20260831041641 71 149 0.0 0.0 0.00 0.00 0.00 88 1022.9
20260831041541 71 150 0.0 0.0 0.00 0.00 0.00 88 1022.9
20260831041438 71 149 0.0 0.0 0.00 0.00 0.00 88 1022.9
20260831041340 71 150 0.0 0.0 0.00 0.00 0.00 87 1023.0
20260831041237 71 150 0.0 0.0 0.00 0.00 0.00 87 1022.9
20260831041130 71 150 0.0 0.0 0.00 0.00 0.00 87 1023.0
20260831041032 71 150 0.0 0.0 0.00 0.00 0.00 87 1023.0
20260831040928 71 150 0.0 0.0 0.00 0.00 0.00 87 1023.0
20260831040830 71 150 0.0 0.0 0.00 0.00 0.00 87 1022.9
20260831040726 71 149 0.0 0.0 0.00 0.00 0.00 87 1023.0
20260831040623 72 149 0.0 0.0 0.00 0.00 0.00 87 1023.0
20260831040520 72 150 0.0 0.0 0.00 0.00 0.00 87 1023.0
20260831040421 71 148 0.0 0.0 0.00 0.00 0.00 87 1022.9
20260831040320 72 149 0.0 0.0 0.00 0.00 0.00 87 1023.0
20260831040220 72 150 0.0 0.0 0.00 0.00 0.00 87 1023.0
20260831040121 72 148 0.0 0.0 0.00 0.00 0.00 87 1023.0
20260831040018 72 148 0.0 0.0 0.00 0.00 0.00 87 1023.0
20260831035917 72 149 0.0 0.0 0.00 0.00 0.00 87 1023.0
20260831035817 72 148 0.0 0.0 0.00 0.00 0.00 87 1023.0
20260831035715 72 150 0.0 0.0 0.00 0.00 0.00 87 1023.0
20260831035605 72 148 0.0 0.0 0.00 0.00 0.00 87 1023.1
20260831035505 72 148 0.0 0.0 0.00 0.00 0.00 87 1023.1
20260831035404 72 148 0.0 0.0 0.00 0.00 0.00 87 1023.1
20260831035306 72 148 0.0 0.0 0.00 0.00 0.00 87 1023.2
20260831035205 72 148 0.0 0.0 0.00 0.00 0.00 87 1023.1
20260831035102 72 148 0.0 0.0 0.00 0.00 0.00 87 1023.1
20260831035002 72 149 0.0 0.0 0.00 0.00 0.00 87 1023.0
20260831034901 72 148 0.0 0.0 0.00 0.00 0.00 87 1023.2
20260831034801 72 149 0.0 0.0 0.00 0.00 0.00 87 1023.1
20260831034659 72 148 0.0 0.0 0.00 0.00 0.00 87 1023.1
20260831034556 72 146 0.0 0.0 0.00 0.00 0.00 87 1023.2
20260831034457 72 148 0.0 0.0 0.00 0.00 0.00 87 1023.2
20260831034354 72 146 0.0 0.0 0.00 0.00 0.00 87 1023.2
20260831034255 72 148 0.0 0.0 0.00 0.00 0.00 87 1023.2
20260831034153 72 146 0.0 0.0 0.00 0.00 0.00 87 1023.2
20260831034054 72 144 0.0 0.0 0.00 0.00 0.00 87 1023.2
20260831033950 72 148 0.0 0.0 0.00 0.00 0.00 87 1023.2
20260831033852 72 144 0.0 0.0 0.00 0.00 0.00 87 1023.3
20260831033748 72 145 0.0 0.0 0.00 0.00 0.00 87 1023.2
20260831033649 72 147 0.0 0.0 0.00 0.00 0.00 87 1023.1
20260831033546 72 148 0.0 0.0 0.00 0.00 0.00 87 1023.2
20260831033444 72 148 0.0 0.0 0.00 0.00 0.00 87 1023.1
20260831033342 72 149 0.0 0.0 0.00 0.00 0.00 87 1023.2
20260831033237 72 146 0.0 0.0 0.00 0.00 0.00 87 1023.2
20260831033137 72 146 0.0 0.0 0.00 0.00 0.00 87 1023.2
20260831033034 72 147 0.0 0.0 0.00 0.00 0.00 87 1023.3
20260831032934 72 147 0.0 0.0 0.00 0.00 0.00 87 1023.3
20260831032832 72 146 0.0 0.0 0.00 0.00 0.00 87 1023.3
20260831032733 72 147 0.0 0.0 0.00 0.00 0.00 87 1023.5
20260831032631 72 146 0.0 0.0 0.00 0.00 0.00 87 1023.5
20260831032526 72 146 0.0 0.0 0.00 0.00 0.00 87 1023.6
20260831032426 72 148 0.0 0.0 0.00 0.00 0.00 87 1023.6
20260831032326 72 148 0.0 0.0 0.00 0.00 0.00 87 1023.5
20260831032223 72 147 0.0 0.0 0.00 0.00 0.00 87 1023.5
20260831032121 72 146 0.0 0.0 0.00 0.00 0.00 87 1023.3
20260831032017 72 145 0.0 0.0 0.00 0.00 0.00 87 1023.5
20260831031914 72 148 0.0 0.0 0.00 0.00 0.00 87 1023.5
20260831031815 72 148 0.0 0.0 0.00 0.00 0.00 87 1023.3
20260831031714 72 146 0.0 0.0 0.00 0.00 0.00 87 1023.5
20260831031614 72 146 0.0 0.0 0.00 0.00 0.00 87 1023.5
20260831031512 72 145 0.0 0.0 0.00 0.00 0.00 87 1023.5
20260831031414 72 153 0.0 0.0 0.00 0.00 0.00 87 1023.5
20260831031310 72 158 0.0 0.0 0.00 0.00 0.00 87 1023.5
20260831031211 72 159 0.0 0.0 0.00 0.00 0.00 87 1023.5
20260831031108 72 163 0.0 0.0 0.00 0.00 0.00 87 1023.5
20260831031003 72 165 0.0 0.0 0.00 0.00 0.00 87 1023.5
20260831030903 72 165 0.0 0.0 0.00 0.00 0.00 87 1023.5
20260831030803 72 165 0.0 0.0 0.00 0.00 0.00 87 1023.3
20260831030700 72 165 0.0 0.0 0.00 0.00 0.00 87 1023.3
20260831030559 72 166 0.0 0.0 0.00 0.00 0.00 87 1023.5
20260831030500 72 166 0.0 0.0 0.00 0.00 0.00 87 1023.5
20260831030356 72 166 0.0 0.0 0.00 0.00 0.00 87 1023.3
20260831030258 72 166 0.0 0.0 0.00 0.00 0.00 87 1023.3
20260831030155 72 167 0.0 0.0 0.00 0.00 0.00 87 1023.5
20260831030053 72 190 0.0 0.0 0.00 0.00 0.00 87 1023.5
20260831025952 72 191 0.0 0.0 0.00 0.00 0.00 87 1023.5
20260831025850 72 191 0.0 0.0 0.00 0.00 0.00 87 1023.5
20260831025750 72 191 0.0 0.0 0.00 0.00 0.00 87 1023.6
20260831025649 72 191 0.0 0.0 0.00 0.00 0.00 87 1023.5
20260831025546 72 191 0.0 0.0 0.00 0.00 0.00 87 1023.5
20260831025440 72 191 0.0 0.0 0.00 0.00 0.00 87 1023.6
20260831025341 72 191 0.0 0.0 0.00 0.00 0.00 87 1023.5
20260831025242 72 191 0.0 0.0 0.00 0.00 0.00 87 1023.5
20260831025140 72 191 0.0 0.0 0.00 0.00 0.00 87 1023.5
20260831025037 72 191 0.0 0.0 0.00 0.00 0.00 86 1023.5
20260831024934 72 192 0.0 0.0 0.00 0.00 0.00 86 1023.5
20260831024834 72 191 0.0 0.0 0.00 0.00 0.00 86 1023.5
20260831024735 72 192 0.0 0.0 0.00 0.00 0.00 87 1023.5
20260831024633 72 192 0.0 0.0 0.00 0.00 0.00 86 1023.5
20260831024531 72 192 0.0 0.0 0.00 0.00 0.00 86 1023.6
20260831024430 72 191 0.0 0.0 0.00 0.00 0.00 86 1023.3
20260831024330 72 191 0.0 0.0 0.00 0.00 0.00 87 1023.5
20260831024229 72 191 0.0 0.0 0.00 0.00 0.00 87 1023.5
20260831024127 72 192 0.0 0.0 0.00 0.00 0.00 87 1023.5
20260831024025 72 193 0.0 0.0 0.00 0.00 0.00 87 1023.5
20260831023919 72 193 0.0 0.0 0.00 0.00 0.00 87 1023.6
20260831023818 73 194 0.0 0.0 0.00 0.00 0.00 87 1023.5
20260831023719 72 195 0.0 0.0 0.00 0.00 0.00 87 1023.5
20260831023616 72 195 0.0 0.0 0.00 0.00 0.00 86 1023.5
20260831023514 73 194 0.0 0.0 0.00 0.00 0.00 86 1023.6
20260831023412 72 194 0.0 0.0 0.00 0.00 0.00 86 1023.6
20260831023309 73 194 0.0 0.0 0.00 0.00 0.00 86 1023.6
20260831023208 73 194 0.0 0.0 0.00 0.00 0.00 86 1023.6
20260831023110 73 196 0.0 0.0 0.00 0.00 0.00 86 1023.6
20260831023008 73 197 0.0 0.0 0.00 0.00 0.00 86 1023.6
20260831022908 73 197 0.0 0.0 0.00 0.00 0.00 86 1023.6
20260831022807 73 197 0.0 0.0 0.00 0.00 0.00 87 1023.6
20260831022704 73 197 0.0 0.0 0.00 0.00 0.00 87 1023.6
20260831022606 73 202 0.0 0.0 0.00 0.00 0.00 87 1023.7
20260831022502 73 202 0.0 0.0 0.00 0.00 0.00 87 1023.7
20260831022354 73 202 0.0 0.0 0.00 0.00 0.00 86 1023.7
20260831022254 73 202 0.0 0.0 0.00 0.00 0.00 86 1023.7
20260831022152 73 202 0.0 0.0 0.00 0.00 0.00 86 1023.7
20260831022052 73 201 0.0 0.0 0.00 0.00 0.00 86 1023.6
20260831021953 73 201 0.0 0.0 0.00 0.00 0.00 86 1023.6
20260831021852 73 193 0.0 0.0 0.00 0.00 0.00 86 1023.7
20260831021750 73 193 0.0 0.0 0.00 0.00 0.00 86 1023.6
20260831021651 73 193 0.0 0.0 0.00 0.00 0.00 86 1023.6
20260831021549 73 193 0.0 0.0 0.00 0.00 0.00 86 1023.5
20260831021447 73 193 0.0 0.0 0.00 0.00 0.00 86 1023.6
20260831021347 73 193 0.0 0.0 0.00 0.00 0.00 86 1023.6
20260831021244 73 193 0.0 0.0 0.00 0.00 0.00 86 1023.5
20260831021144 73 194 0.0 0.0 0.00 0.00 0.00 86 1023.5
20260831021043 73 215 0.0 0.0 0.00 0.00 0.00 86 1023.5
20260831020940 73 187 0.0 0.0 0.00 0.00 0.00 87 1023.3
20260831020832 73 202 0.0 0.0 0.00 0.00 0.00 87 1023.3
20260831020731 73 202 0.0 0.0 0.00 0.00 0.00 86 1023.5
20260831020630 73 206 0.0 0.0 0.00 0.00 0.00 86 1023.5
20260831020531 73 201 0.0 0.0 0.00 0.00 0.00 87 1023.5
20260831020430 73 196 0.0 0.0 0.00 0.00 0.00 87 1023.5
20260831020332 73 200 0.0 0.0 0.00 0.00 0.00 87 1023.5
20260831020228 73 182 0.0 0.0 0.00 0.00 0.00 87 1023.3
20260831020129 73 182 0.0 0.0 0.00 0.00 0.00 87 1023.6
20260831020026 73 188 0.0 0.0 0.00 0.00 0.00 87 1023.5
20260831015925 73 188 0.0 0.0 0.00 0.00 0.00 87 1023.5
20260831015824 73 190 0.0 0.0 0.00 0.00 0.00 87 1023.5
20260831015723 73 190 0.0 0.0 0.00 0.00 0.00 87 1023.6
20260831015620 73 189 0.0 0.0 0.00 0.00 0.00 87 1023.5
20260831015521 73 180 0.0 0.0 0.00 0.00 0.00 87 1023.6
20260831015420 73 179 0.0 0.0 0.00 0.00 0.00 87 1023.6
20260831015320 73 179 0.0 0.0 0.00 0.00 0.00 87 1023.6
20260831015220 73 178 0.0 0.0 0.00 0.00 0.00 87 1023.6
20260831015119 73 176 0.0 0.0 0.00 0.00 0.00 87 1023.6
20260831015019 73 186 0.0 0.0 0.00 0.00 0.00 87 1023.7
20260831014918 73 186 0.0 0.0 0.00 0.00 0.00 87 1023.7
20260831014816 73 192 0.0 0.0 0.00 0.00 0.00 87 1023.6
20260831014715 73 192 0.0 0.0 0.00 0.00 0.00 87 1023.6
20260831014611 73 190 0.0 0.0 0.00 0.00 0.00 87 1023.6
20260831014513 73 194 0.0 0.0 0.00 0.00 0.00 87 1023.6
20260831014412 73 195 0.0 0.0 0.00 0.00 0.00 87 1023.6
20260831014313 73 197 0.0 0.0 0.00 0.00 0.00 87 1023.6
20260831014213 73 202 0.0 0.0 0.00 0.00 0.00 87 1023.6
20260831014113 73 171 0.0 0.0 0.00 0.00 0.00 87 1023.5
20260831014011 73 185 0.0 0.0 0.00 0.00 0.00 87 1023.6
20260831013910 73 192 0.0 0.0 0.00 0.00 0.00 87 1023.5
20260831013810 73 180 0.0 0.0 0.00 0.00 0.00 87 1023.6
20260831013710 73 180 0.0 0.0 0.00 0.00 0.00 87 1023.5
20260831013604 73 181 0.0 0.0 0.00 0.00 0.00 87 1023.6
20260831013505 73 182 0.0 0.0 0.00 0.00 0.00 87 1023.5
20260831013405 73 182 0.0 0.0 0.00 0.00 0.00 87 1023.5
20260831013305 73 167 0.0 0.0 0.00 0.00 0.00 87 1023.3
20260831013205 73 198 0.0 0.0 0.00 0.00 0.00 87 1023.3
20260831013104 73 198 0.0 0.0 0.00 0.00 0.00 87 1023.3
20260831013002 73 198 0.0 0.0 0.00 0.00 0.00 87 1023.3
20260831012902 73 198 0.0 0.0 0.00 0.00 0.00 87 1023.5
20260831012800 72 198 0.0 0.0 0.00 0.00 0.00 87 1023.3
20260831012658 72 201 0.0 0.0 0.00 0.00 0.00 87 1023.3
20260831012558 72 193 0.0 0.0 0.00 0.00 0.00 87 1023.3
20260831012457 72 184 0.0 0.0 0.00 0.00 0.00 87 1023.3
20260831012356 72 184 0.0 0.0 0.00 0.00 0.00 87 1023.2
20260831012257 72 184 0.0 0.0 0.00 0.00 0.00 87 1023.1
20260831012156 73 179 0.0 0.0 0.00 0.00 0.00 87 1023.1
20260831012058 72 175 0.0 0.0 0.00 0.00 0.00 87 1023.1
20260831011954 72 175 0.0 0.0 0.00 0.00 0.00 87 1023.1
20260831011854 72 176 0.0 0.0 0.00 0.00 0.00 87 1023.0
20260831011752 72 175 0.0 0.0 0.00 0.00 0.00 87 1023.0
20260831011652 72 175 0.0 0.0 0.00 0.00 0.00 87 1023.0
20260831011552 72 181 0.0 0.0 0.00 0.00 0.00 87 1023.0
20260831011452 72 184 0.0 0.0 0.00 0.00 0.00 87 1023.0
20260831011352 72 184 0.0 0.0 0.00 0.00 0.00 87 1023.0
20260831011250 72 184 0.0 0.0 0.00 0.00 0.00 87 1023.0
20260831011152 73 186 0.0 0.0 0.00 0.00 0.00 87 1022.9
20260831011049 73 186 0.0 0.0 0.00 0.00 0.00 87 1023.0
20260831010947 73 142 0.0 0.0 0.00 0.00 0.00 87 1023.0
20260831010846 73 180 0.0 0.0 0.00 0.00 0.00 87 1023.0
20260831010744 73 180 0.0 0.0 0.00 0.00 0.00 88 1023.0
20260831010644 73 179 0.0 0.0 0.00 0.00 0.00 87 1023.0
20260831010546 73 179 0.0 0.0 0.00 0.00 0.00 87 1023.0
20260831010444 73 179 0.0 0.0 0.00 0.00 0.00 87 1022.9
20260831010342 73 179 0.0 0.0 0.00 0.00 0.00 87 1023.0
20260831010243 73 180 0.0 0.0 0.00 0.00 0.00 87 1023.0
20260831010143 73 176 0.0 0.0 0.00 0.00 0.00 87 1022.9
20260831010041 73 176 0.0 0.0 0.00 0.00 0.00 87 1022.9
20260831005939 73 176 0.0 0.0 0.00 0.00 0.00 87 1022.9
20260831005839 73 175 0.0 0.0 0.00 0.00 0.00 87 1022.8
20260831005736 73 175 0.0 0.0 0.00 0.00 0.00 87 1022.8
20260831005638 73 175 0.0 0.0 0.00 0.00 0.00 87 1022.8
20260831005534 73 176 0.0 0.0 0.00 0.00 0.00 87 1022.7
20260831005433 73 176 0.0 0.0 0.00 0.00 0.00 87 1022.8
20260831005327 73 176 0.0 0.0 0.00 0.00 0.00 87 1022.7
20260831005226 73 175 0.0 0.0 0.00 0.00 0.00 87 1022.7
20260831005125 73 179 0.0 0.0 0.00 0.00 0.00 87 1022.8
20260831005025 73 189 0.0 0.0 0.00 0.00 0.00 87 1022.7
20260831004923 73 188 0.0 0.0 0.00 0.00 0.00 87 1022.7
20260831004823 73 188 0.0 0.0 0.00 0.00 0.00 87 1022.7
20260831004720 73 188 0.0 0.0 0.00 0.00 0.00 87 1022.7
20260831004621 73 188 0.0 0.0 0.00 0.00 0.00 87 1022.6
20260831004519 73 188 0.0 0.0 0.00 0.00 0.00 87 1022.7
20260831004416 73 188 0.0 0.0 0.00 0.00 0.00 87 1022.6
20260831004317 73 188 0.0 0.0 0.00 0.00 0.00 87 1022.6
20260831004214 73 188 0.0 0.0 0.00 0.00 0.00 87 1022.6
20260831004113 73 188 0.0 0.0 0.00 0.00 0.00 87 1022.6
20260831004013 73 188 0.0 0.0 0.00 0.00 0.00 87 1022.6
20260831003910 73 189 0.0 0.0 0.00 0.00 0.00 87 1022.7
20260831003805 73 189 0.0 0.0 0.00 0.00 0.00 87 1022.7
20260831003704 73 189 0.0 0.0 0.00 0.00 0.00 87 1022.6
20260831003604 73 198 0.0 0.0 0.00 0.00 0.00 87 1022.7
20260831003506 73 167 0.0 0.0 0.00 0.00 0.00 87 1022.7
20260831003404 73 173 0.0 0.0 0.00 0.00 0.00 87 1022.6
20260831003303 73 176 0.0 0.0 0.00 0.00 0.00 87 1022.6
20260831003205 73 178 0.0 0.0 0.00 0.00 0.00 87 1022.7
20260831003104 73 178 0.0 0.0 0.00 0.00 0.00 87 1022.6
20260831003005 73 178 0.0 0.0 0.00 0.00 0.00 87 1022.6
20260831002904 73 178 0.0 0.0 0.00 0.00 0.00 87 1022.6
20260831002804 73 178 0.0 0.0 0.00 0.00 0.00 87 1022.6
20260831002705 73 180 0.0 0.0 0.00 0.00 0.00 87 1022.6
20260831002604 73 195 0.0 0.0 0.00 0.00 0.00 87 1022.6
20260831002504 73 196 0.0 0.0 0.00 0.00 0.00 87 1022.6
20260831002403 73 198 0.0 0.0 0.00 0.00 0.00 87 1022.6
20260831002306 73 181 0.0 0.0 0.00 0.00 0.00 87 1022.6
20260831002203 74 174 0.0 0.0 0.00 0.00 0.00 87 1022.6
20260831002058 74 174 0.0 0.0 0.00 0.00 0.00 87 1022.6
20260831001957 74 174 0.0 0.0 0.00 0.00 0.00 87 1022.7
20260831001857 74 174 0.0 0.0 0.00 0.00 0.00 86 1022.6
20260831001757 74 174 0.0 0.0 0.00 0.00 0.00 86 1022.6
20260831001656 74 169 0.0 0.0 0.00 0.00 0.00 86 1022.5
20260831001557 74 180 0.0 0.0 0.00 0.00 0.00 87 1022.5
20260831001456 74 150 0.0 0.0 0.00 0.00 0.00 87 1022.6
20260831001356 74 207 0.0 0.0 0.00 0.00 0.00 87 1022.6
20260831001257 74 207 0.0 0.0 0.00 0.00 0.00 87 1022.6
20260831001157 74 206 0.0 0.0 0.00 0.00 0.00 86 1022.6
20260831001054 74 207 0.0 0.0 0.00 0.00 0.00 86 1022.6
20260831000952 74 194 0.0 0.0 0.00 0.00 0.00 86 1022.5
20260831000850 74 169 0.0 0.0 0.00 0.00 0.00 86 1022.5
20260831000750 74 169 0.0 0.0 0.00 0.00 0.00 86 1022.5
20260831000649 74 169 0.0 0.0 0.00 0.00 0.00 86 1022.5
20260831000549 74 167 0.0 0.0 0.00 0.00 0.00 86 1022.5
20260831000447 74 188 0.0 0.0 0.00 0.00 0.00 86 1022.5
20260831000347 74 188 0.0 0.0 0.00 0.00 0.00 86 1022.5
20260831000248 74 188 0.0 0.0 0.00 0.00 0.00 86 1022.7
20260831000147 74 188 0.0 0.0 0.00 0.00 0.00 86 1022.5
20260831000047 74 188 0.0 0.0 0.00 0.00 0.00 86 1022.5
20260830235945 74 189 0.0 0.0 0.00 0.00 0.00 86 1022.5
20260830235845 74 205 0.0 0.0 0.00 0.00 0.00 87 1022.5
20260830235742 74 202 0.0 0.0 0.00 0.00 0.00 87 1022.4
20260830235643 74 202 0.0 0.0 0.00 0.00 0.00 86 1022.5
20260830235541 74 202 0.0 0.0 0.00 0.00 0.00 86 1022.6
20260830235440 74 208 0.0 0.0 0.00 0.00 0.00 86 1022.5
20260830235337 74 216 0.0 0.0 0.00 0.00 0.00 86 1022.6
20260830235239 74 217 0.0 0.0 0.00 0.00 0.00 86 1022.6
20260830235139 74 217 0.0 0.0 0.00 0.00 0.00 86 1022.6
20260830235039 74 217 0.0 0.0 0.00 0.00 0.00 86 1022.5
20260830234937 74 217 0.0 0.0 0.00 0.00 0.00 86 1022.5
20260830234837 74 217 0.0 0.0 0.00 0.00 0.00 86 1022.5
20260830234734 75 217 0.0 0.0 0.00 0.00 0.00 86 1022.5
20260830234635 75 217 0.0 0.0 0.00 0.00 0.00 86 1022.6
20260830234533 75 217 0.0 0.0 0.00 0.00 0.00 86 1022.5
20260830234431 75 217 0.0 0.0 0.00 0.00 0.00 86 1022.5
20260830234331 75 217 0.0 0.0 0.00 0.00 0.00 86 1022.5
20260830234229 75 217 0.0 0.0 0.00 0.00 0.00 86 1022.6
20260830234129 75 217 0.0 0.0 0.00 0.00 0.00 86 1022.5
20260830234027 75 217 0.0 0.0 0.00 0.00 0.00 86 1022.5
20260830233925 75 217 0.0 0.0 0.00 0.00 0.00 86 1022.5
20260830233817 75 217 0.0 0.0 0.00 0.00 0.00 85 1022.5
20260830233718 75 217 0.0 0.0 0.00 0.00 0.00 85 1022.6
20260830233616 75 217 0.0 0.0 0.00 0.00 0.00 85 1022.6
20260830233517 75 217 0.0 0.0 0.00 0.00 0.00 85 1022.5
20260830233414 75 217 0.0 0.0 0.00 0.00 0.00 85 1022.5
20260830233308 75 217 0.0 0.0 0.00 0.00 0.00 85 1022.6
20260830233208 75 217 0.0 0.0 0.00 0.00 0.00 85 1022.6
20260830233109 76 228 0.0 0.0 0.00 0.00 0.00 85 1022.5
20260830233007 76 238 0.0 0.0 0.00 0.00 0.00 85 1022.5
20260830232908 76 267 0.0 0.0 0.00 0.00 0.00 85 1022.5
20260830232805 76 269 0.0 0.0 0.00 0.00 0.00 85 1022.5
20260830232707 76 269 0.0 0.0 0.00 0.00 0.00 85 1022.6
20260830232606 76 269 0.0 0.0 0.00 0.00 0.00 84 1022.6
20260830232505 76 271 0.0 0.0 0.00 0.00 0.00 84 1022.6
20260830232404 76 280 0.0 0.0 0.00 0.00 0.00 84 1022.6
20260830232306 76 211 0.0 0.0 0.00 0.00 0.00 84 1022.6
20260830232204 76 211 0.0 0.0 0.00 0.00 0.00 84 1022.6
20260830232104 76 229 0.0 0.0 0.00 0.00 0.00 84 1022.5
20260830232005 76 199 0.0 0.0 0.00 0.00 0.00 84 1022.6
20260830231905 76 11 0.0 0.0 0.00 0.00 0.00 84 1022.6
20260830231804 76 69 0.0 0.0 0.00 0.00 0.00 84 1022.6
20260830231702 76 68 0.0 0.0 0.00 0.00 0.00 83 1022.7
20260830231602 76 101 0.0 0.0 0.00 0.00 0.00 83 1022.7
20260830231500 76 134 0.0 0.0 0.00 0.00 0.00 83 1022.7
20260830231400 76 103 0.0 0.0 0.00 0.00 0.00 83 1022.7
20260830231300 76 103 0.0 0.0 0.00 0.00 0.00 84 1022.7
20260830231200 76 103 0.0 0.0 0.00 0.00 0.00 84 1022.7
20260830231101 76 103 0.0 0.0 0.00 0.00 0.00 83 1022.7
20260830230958 77 103 0.0 0.0 0.00 0.00 0.00 83 1022.6
20260830230858 77 145 0.0 0.0 0.00 0.00 0.00 83 1022.6
20260830230757 77 128 0.0 0.0 0.00 0.00 0.00 83 1022.6
20260830230655 77 128 0.0 0.0 0.00 0.00 0.00 83 1022.6
20260830230548 77 127 0.0 0.0 0.00 0.00 0.00 83 1022.6
20260830230449 77 127 0.0 0.0 0.00 0.00 0.00 83 1022.5
20260830230348 77 127 0.0 0.0 0.00 0.00 0.00 83 1022.6
20260830230247 77 121 0.0 0.0 0.00 0.00 0.00 83 1022.5
20260830230144 77 170 0.0 0.0 0.00 0.00 0.00 83 1022.5
20260830230045 77 182 0.0 0.0 0.00 0.00 0.00 83 1022.5
20260830225942 77 186 0.0 0.0 0.00 0.00 0.00 83 1022.5
20260830225843 77 185 0.0 0.0 0.00 0.00 0.00 83 1022.5
20260830225740 77 185 0.0 0.0 0.00 0.00 0.00 83 1022.5
20260830225638 77 185 0.0 0.0 0.00 0.00 0.00 82 1022.5
20260830225538 77 185 0.0 0.0 0.00 0.00 0.00 82 1022.6
20260830225437 77 186 0.0 0.0 0.00 0.00 0.00 82 1022.5
20260830225335 77 185 0.0 0.0 0.00 0.00 0.00 81 1022.5
20260830225235 77 184 0.0 0.0 0.00 0.00 0.00 82 1022.4
20260830225132 77 162 0.0 0.0 0.00 0.00 0.00 82 1022.5
20260830225027 77 162 0.0 0.0 0.00 0.00 0.00 81 1022.5
20260830224926 77 161 0.0 0.0 0.00 0.00 0.00 81 1022.4
20260830224827 77 165 0.0 0.0 0.00 0.00 0.00 81 1022.4
20260830224725 77 256 0.0 0.0 0.00 0.00 0.00 81 1022.4
20260830224623 78 256 0.0 0.0 0.00 0.00 0.00 81 1022.4
20260830224522 78 180 0.0 0.0 0.00 0.00 0.00 81 1022.4
20260830224421 78 186 0.0 0.0 0.00 0.00 0.00 81 1022.3
20260830224320 78 182 0.0 0.0 0.00 0.00 0.00 81 1022.4
20260830224219 78 183 0.0 0.0 0.00 0.00 0.00 81 1022.4
20260830224117 78 183 0.0 0.0 0.00 0.00 0.00 81 1022.3
20260830224016 78 184 0.0 0.0 0.00 0.00 0.00 81 1022.4
20260830223915 78 182 0.0 0.0 0.00 0.00 0.00 81 1022.3
20260830223811 78 177 0.0 0.0 0.00 0.00 0.00 81 1022.3
20260830223713 78 166 0.0 0.0 0.00 0.00 0.00 81 1022.3
20260830223611 78 167 0.0 0.0 0.00 0.00 0.00 80 1022.3
20260830223505 78 163 0.0 0.0 0.00 0.00 0.00 80 1022.3
20260830223403 78 166 0.0 0.0 0.00 0.00 0.00 80 1022.4
20260830223305 78 166 0.0 0.0 0.00 0.00 0.00 80 1022.3
20260830223202 78 166 0.0 0.0 0.00 0.00 0.00 80 1022.4
20260830223100 78 165 0.0 0.0 0.00 0.00 0.00 80 1022.4
20260830222957 78 165 0.0 0.0 0.00 0.00 0.00 79 1022.4
20260830222855 79 165 0.0 0.0 0.00 0.00 0.00 80 1022.4
20260830222753 79 160 0.0 0.0 0.00 0.00 0.00 80 1022.5
20260830222655 79 160 0.0 0.0 0.00 0.00 0.00 80 1022.4
20260830222554 79 160 0.0 0.0 0.00 0.00 0.00 79 1022.5
20260830222449 79 160 0.0 0.0 0.00 0.00 0.00 79 1022.4
20260830222351 79 159 0.0 0.0 0.00 0.00 0.00 78 1022.5
20260830222249 79 171 0.0 0.0 0.00 0.00 0.00 78 1022.4
20260830222151 79 170 0.0 0.0 0.00 0.00 0.00 78 1022.4
20260830222048 79 177 0.0 0.0 0.00 0.00 0.00 78 1022.4
20260830221940 79 167 0.0 0.0 0.00 0.00 0.00 78 1022.4
20260830221841 79 190 0.0 0.0 0.00 0.00 0.00 78 1022.3
20260830221739 79 160 0.0 0.0 0.00 0.00 0.00 78 1022.3
20260830221640 79 160 0.0 0.0 0.00 0.00 0.00 78 1022.4
20260830221539 80 140 0.0 0.0 0.00 0.00 0.00 78 1022.4
20260830221438 80 161 0.0 0.0 0.00 0.00 0.00 78 1022.5
20260830221336 80 161 0.0 0.0 0.00 0.00 0.00 78 1022.5
20260830221236 80 163 0.0 0.0 0.00 0.00 0.00 78 1022.6
20260830221135 80 152 0.0 0.0 0.00 0.00 0.00 78 1022.5
20260830221033 80 134 0.0 0.0 0.00 0.00 0.00 77 1022.5
20260830220930 80 133 0.0 0.0 0.00 0.00 0.00 78 1022.5
20260830220831 80 133 0.0 0.0 0.00 0.00 0.00 78 1022.5
20260830220729 80 133 0.0 0.0 0.00 0.00 0.00 78 1022.5
20260830220629 80 132 0.0 0.0 0.00 0.00 0.00 78 1022.5
20260830220526 80 126 0.0 0.0 0.00 0.00 0.00 78 1022.5
20260830220421 80 126 0.0 0.0 0.00 0.00 0.00 78 1022.4
20260830220320 80 126 0.0 0.0 0.00 0.00 0.00 77 1022.5
20260830220220 80 126 0.0 0.0 0.00 0.00 0.00 77 1022.5
20260830220119 80 126 0.0 0.0 0.00 0.00 0.00 78 1022.5
20260830220017 80 126 0.0 0.0 0.00 0.00 0.00 78 1022.5
20260830215916 80 119 0.0 0.0 0.00 0.00 0.00 78 1022.4
20260830215814 80 120 0.0 0.0 0.00 0.00 0.00 77 1022.5
20260830215714 80 119 0.0 0.0 0.00 0.00 0.00 77 1022.4
20260830215613 80 138 0.0 0.0 0.00 0.00 0.00 78 1022.4
20260830215510 80 154 0.0 0.0 0.00 0.00 0.00 77 1022.4
20260830215406 80 123 0.0 0.0 0.00 0.00 0.00 77 1022.5
20260830215306 80 189 0.0 0.0 0.00 0.00 0.00 77 1022.5
20260830215206 80 222 0.0 0.0 0.00 0.00 0.00 77 1022.5
20260830215107 80 181 0.0 0.0 0.00 0.00 0.00 77 1022.6
20260830215005 80 197 0.0 0.0 0.00 0.00 0.00 77 1022.5
20260830214857 80 129 0.0 0.0 0.00 0.00 0.00 77 1022.6
20260830214754 80 128 0.0 0.0 0.00 0.00 0.00 77 1022.6
20260830214655 80 129 0.0 0.0 0.00 0.00 0.00 77 1022.5
20260830214555 80 157 0.0 0.0 0.00 0.00 0.00 77 1022.6
20260830214454 81 172 0.0 0.0 0.00 0.00 0.00 77 1022.6
20260830214354 81 174 0.0 0.0 0.00 0.00 0.00 76 1022.6
20260830214253 81 182 0.0 0.0 0.00 0.00 0.00 76 1022.6
20260830214155 81 185 0.0 0.0 0.00 0.00 0.00 77 1022.6
20260830214054 81 186 0.0 0.0 0.00 0.00 0.00 77 1022.5
20260830213954 81 190 0.0 0.0 0.00 0.00 0.00 77 1022.5
20260830213853 81 190 0.0 0.0 0.00 0.00 0.00 76 1022.5
20260830213750 81 153 0.0 0.0 0.00 0.00 0.00 76 1022.4
20260830213648 81 162 0.0 0.0 0.00 0.00 0.00 76 1022.4
20260830213547 81 161 0.0 0.0 0.00 0.00 0.00 76 1022.4
20260830213449 81 160 0.0 0.0 0.00 0.00 0.00 76 1022.5
20260830213346 81 157 0.0 0.0 0.00 0.00 0.00 77 1022.6
20260830213244 81 157 0.0 0.0 0.00 0.00 0.00 77 1022.6
20260830213144 81 150 0.0 0.0 0.00 0.00 0.00 78 1022.6
20260830213042 81 175 0.0 0.0 0.00 0.00 0.00 77 1022.5
20260830212942 81 183 0.0 0.0 0.00 0.00 0.00 78 1022.5
20260830212840 81 184 0.0 0.0 0.00 0.00 0.00 77 1022.4
20260830212738 81 184 0.0 0.0 0.00 0.00 0.00 78 1022.5
20260830212638 81 184 0.0 0.0 0.00 0.00 0.00 79 1022.6
20260830212536 81 184 0.0 0.0 0.00 0.00 0.00 78 1022.5
20260830212434 81 185 0.0 0.0 0.00 0.00 0.00 78 1022.6
20260830212333 81 185 0.0 0.0 0.00 0.00 0.00 78 1022.6
20260830212235 81 185 0.0 0.0 0.00 0.00 0.00 78 1022.5
20260830212133 81 185 0.0 0.0 0.00 0.00 0.00 77 1022.5
20260830212034 81 185 0.0 0.0 0.00 0.00 0.00 77 1022.5
20260830211934 81 185 0.0 0.0 0.00 0.00 0.00 77 1022.5
20260830211833 81 191 0.0 0.0 0.00 0.00 0.00 77 1022.4
20260830211735 81 198 0.0 0.0 0.00 0.00 0.00 77 1022.5
20260830211633 81 198 0.0 0.0 0.00 0.00 0.00 76 1022.4
20260830211533 81 126 0.0 0.0 0.00 0.00 0.00 77 1022.5
20260830211430 81 152 0.0 0.0 0.00 0.00 0.00 77 1022.5
20260830211331 81 153 0.0 0.0 0.00 0.00 0.00 77 1022.5
20260830211228 81 186 0.0 0.0 0.00 0.00 0.00 76 1022.6
20260830211123 81 177 0.0 0.0 0.00 0.00 0.00 76 1022.5
20260830211023 81 182 0.0 0.0 0.00 0.00 0.00 76 1022.4
20260830210924 81 190 0.0 0.0 0.00 0.00 0.00 77 1022.4
20260830210824 81 171 0.0 0.0 0.00 0.00 0.00 77 1022.5
20260830210723 81 169 0.0 0.0 0.00 0.00 0.00 77 1022.5
20260830210619 81 180 0.0 0.0 0.00 0.00 0.00 76 1022.5
20260830210521 81 148 0.0 0.0 0.00 0.00 0.00 77 1022.5
20260830210417 81 196 0.0 0.0 0.00 0.00 0.00 77 1022.5
20260830210318 81 162 0.0 0.0 0.00 0.00 0.00 78 1022.5
20260830210218 81 205 0.0 0.0 0.00 0.00 0.00 78 1022.5
20260830210119 81 132 0.0 0.0 0.00 0.00 0.00 76 1022.5
20260830210017 81 154 0.0 0.0 0.00 0.00 0.00 77 1022.5
20260830205919 81 133 0.0 0.0 0.00 0.00 0.00 76 1022.4
20260830205817 81 140 0.0 0.0 0.00 0.00 0.00 77 1022.6
20260830205718 81 202 0.0 0.0 0.00 0.00 0.00 77 1022.5
20260830205619 81 155 0.0 0.0 0.00 0.00 0.00 76 1022.5
20260830205516 81 136 0.0 0.0 0.00 0.00 0.00 76 1022.6
20260830205416 81 135 0.0 0.0 0.00 0.00 0.00 75 1022.6
20260830205315 81 135 0.0 0.0 0.00 0.00 0.00 75 1022.6
20260830205213 82 135 0.0 0.0 0.00 0.00 0.00 75 1022.6
20260830205113 82 139 0.0 0.0 0.00 0.00 0.00 76 1022.6
20260830205010 82 139 0.0 0.0 0.00 0.00 0.00 76 1022.7
20260830204910 82 139 0.0 0.0 0.00 0.00 0.00 75 1022.6
20260830204809 82 142 0.0 0.0 0.00 0.00 0.00 76 1022.6
20260830204708 82 146 0.0 0.0 0.00 0.00 0.00 76 1022.6
20260830204608 82 146 0.0 0.0 0.00 0.00 0.00 75 1022.6
20260830204508 82 142 0.0 0.0 0.00 0.00 0.00 76 1022.7
20260830204402 82 142 0.0 0.0 0.00 0.00 0.00 77 1022.6
20260830204302 82 183 0.0 0.0 0.00 0.00 0.00 75 1022.6
20260830204201 82 205 0.0 0.0 0.00 0.00 0.00 74 1022.6
20260830204102 82 180 0.0 0.0 0.00 0.00 0.00 75 1022.7
20260830204003 82 179 0.0 0.0 0.00 0.00 0.00 75 1022.7
20260830203859 82 146 0.0 0.0 0.00 0.00 0.00 75 1022.6
20260830203800 82 110 0.0 0.0 0.00 0.00 0.00 75 1022.6
20260830203700 82 130 0.0 0.0 0.00 0.00 0.00 75 1022.6
20260830203558 82 130 0.0 0.0 0.00 0.00 0.00 73 1022.6
20260830203457 82 143 0.0 0.0 0.00 0.00 0.00 75 1022.6
20260830203354 82 167 0.0 0.0 0.00 0.00 0.00 76 1022.6
20260830203253 82 142 0.0 0.0 0.00 0.00 0.00 76 1022.5
20260830203155 82 153 0.0 0.0 0.00 0.00 0.00 75 1022.5
20260830203055 82 138 0.0 0.0 0.00 0.00 0.00 76 1022.6
20260830202952 82 110 0.0 0.0 0.00 0.00 0.00 75 1022.7
20260830202852 82 164 0.0 0.0 0.00 0.00 0.00 75 1022.6
20260830202750 82 169 0.0 0.0 0.00 0.00 0.00 76 1022.6
20260830202651 82 158 0.0 0.0 0.00 0.00 0.00 76 1022.7
20260830202549 82 148 0.0 0.0 0.00 0.00 0.00 74 1022.6
20260830202447 82 152 0.0 0.0 0.00 0.00 0.00 74 1022.6
20260830202347 82 163 0.0 0.0 0.00 0.00 0.00 77 1022.5
20260830202243 82 184 0.0 0.0 0.00 0.00 0.00 77 1022.6
20260830202145 82 157 0.0 0.0 0.00 0.00 0.00 76 1022.6
20260830202042 82 155 0.0 0.0 0.00 0.00 0.00 76 1022.6
20260830201941 81 151 0.0 0.0 0.00 0.00 0.00 76 1022.7
20260830201843 81 146 0.0 0.0 0.00 0.00 0.00 75 1022.7
20260830201742 81 163 0.0 0.0 0.00 0.00 0.00 74 1022.7
20260830201640 81 121 0.0 0.0 0.00 0.00 0.00 77 1022.7
20260830201540 81 170 0.0 0.0 0.00 0.00 0.00 76 1022.7
20260830201439 81 204 0.0 0.0 0.00 0.00 0.00 76 1022.8
20260830201339 81 151 0.0 0.0 0.00 0.00 0.00 76 1022.9
20260830201241 81 174 0.0 0.0 0.00 0.00 0.00 75 1022.8
20260830201131 81 155 0.0 0.0 0.00 0.00 0.00 75 1022.8
20260830201029 81 159 0.0 0.0 0.00 0.00 0.00 77 1022.8
20260830200928 81 165 0.0 0.0 0.00 0.00 0.00 78 1022.8
20260830200829 81 113 0.0 0.0 0.00 0.00 0.00 77 1022.7
20260830200726 81 113 0.0 0.0 0.00 0.00 0.00 77 1022.7
20260830200619 81 109 0.0 0.0 0.00 0.00 0.00 77 1022.7
20260830200519 81 171 0.0 0.0 0.00 0.00 0.00 76 1022.7
20260830200421 81 115 0.0 0.0 0.00 0.00 0.00 76 1022.8
20260830200319 80 121 0.0 0.0 0.00 0.00 0.00 75 1022.8
20260830200221 80 141 0.0 0.0 0.00 0.00 0.00 77 1022.8
20260830200120 80 174 0.0 0.0 0.00 0.00 0.00 78 1022.7
20260830200020 80 188 0.0 0.0 0.00 0.00 0.00 78 1022.7
20260830195920 80 187 0.0 0.0 0.00 0.00 0.00 79 1022.9
20260830195818 80 142 0.0 0.0 0.00 0.00 0.00 78 1022.8
20260830195717 80 138 0.0 0.0 0.00 0.00 0.00 78 1022.8
20260830195617 80 110 0.0 0.0 0.00 0.00 0.00 78 1022.8
20260830195515 80 119 0.0 0.0 0.00 0.00 0.00 77 1022.9
20260830195411 80 116 0.0 0.0 0.00 0.00 0.00 79 1023.0
20260830195312 80 134 0.0 0.0 0.00 0.00 0.00 78 1023.0
20260830195209 80 109 0.0 0.0 0.00 0.00 0.00 78 1023.0
20260830195109 80 107 0.0 0.0 0.00 0.00 0.00 78 1022.9
20260830195009 80 157 0.0 0.0 0.00 0.00 0.00 78 1023.0
20260830194908 80 128 0.0 0.0 0.00 0.00 0.00 78 1023.0
20260830194807 80 130 0.0 0.0 0.00 0.00 0.00 77 1023.0
20260830194707 80 124 0.0 0.0 0.00 0.00 0.00 77 1023.1
20260830194608 80 119 0.0 0.0 0.00 0.00 0.00 77 1023.1
20260830194507 80 117 0.0 0.0 0.00 0.00 0.00 77 1023.1
20260830194407 80 111 0.0 0.0 0.00 0.00 0.00 77 1023.1
20260830194308 81 113 0.0 0.0 0.00 0.00 0.00 77 1023.0
20260830194207 81 116 0.0 0.0 0.00 0.00 0.00 76 1023.1
20260830194109 81 112 0.0 0.0 0.00 0.00 0.00 77 1023.1
20260830194007 81 147 0.0 0.0 0.00 0.00 0.00 76 1023.1
20260830193908 81 115 0.0 0.0 0.00 0.00 0.00 77 1023.1
20260830193808 81 146 0.0 0.0 0.00 0.00 0.00 77 1023.1
20260830193708 81 198 0.0 0.0 0.00 0.00 0.00 76 1023.1
20260830193609 81 160 0.0 0.0 0.00 0.00 0.00 77 1023.2
20260830193508 81 128 0.0 0.0 0.00 0.00 0.00 78 1023.1
20260830193407 81 108 0.0 0.0 0.00 0.00 0.00 77 1023.2
20260830193308 81 161 0.0 0.0 0.00 0.00 0.00 78 1023.2
20260830193208 81 183 0.0 0.0 0.00 0.00 0.00 77 1023.2
20260830193108 81 136 0.0 0.0 0.00 0.00 0.00 77 1023.2
20260830193004 81 159 0.0 0.0 0.00 0.00 0.00 78 1023.2
20260830192904 81 138 0.0 0.0 0.00 0.00 0.00 78 1023.2
20260830192804 81 109 0.0 0.0 0.00 0.00 0.00 78 1023.2
20260830192704 81 129 0.0 0.0 0.00 0.00 0.00 78 1023.2
20260830192604 81 98 0.0 0.0 0.00 0.00 0.00 78 1023.2
20260830192503 81 115 0.0 0.0 0.00 0.00 0.00 79 1023.2
20260830192404 81 117 0.0 0.0 0.00 0.00 0.00 80 1023.3
20260830192305 81 123 0.0 0.0 0.00 0.00 0.00 77 1023.2
20260830192203 81 108 0.0 0.0 0.00 0.00 0.00 79 1023.3
20260830192104 81 133 0.0 0.0 0.00 0.00 0.00 79 1023.2
20260830192004 81 98 0.0 0.0 0.00 0.00 0.00 78 1023.3
20260830191904 81 111 0.0 0.0 0.00 0.00 0.00 77 1023.3
20260830191803 81 123 0.0 0.0 0.00 0.00 0.00 76 1023.2
20260830191704 81 182 0.0 0.0 0.00 0.00 0.00 76 1023.3
20260830191603 81 150 0.0 0.0 0.00 0.00 0.00 76 1023.3
20260830191504 81 213 0.0 0.0 0.00 0.00 0.00 77 1023.5
20260830191405 81 76 0.0 0.0 0.00 0.00 0.00 77 1023.5
20260830191304 81 74 0.0 0.0 0.00 0.00 0.00 77 1023.3
20260830191203 81 71 0.0 0.0 0.00 0.00 0.00 77 1023.3
20260830191105 81 71 0.0 0.0 0.00 0.00 0.00 77 1023.3
20260830191004 81 68 0.0 0.0 0.00 0.00 0.00 75 1023.3
20260830190904 81 68 0.0 0.0 0.00 0.00 0.00 77 1023.2
20260830190804 81 99 0.0 0.0 0.00 0.00 0.00 79 1023.5
20260830190705 81 99 0.0 0.0 0.00 0.00 0.00 77 1023.3
20260830190604 81 99 0.0 0.0 0.00 0.00 0.00 76 1023.3
20260830190504 81 99 0.0 0.0 0.00 0.00 0.00 75 1023.5
20260830190404 82 99 0.0 0.0 0.00 0.00 0.00 75 1023.3
20260830190305 82 100 0.0 0.0 0.00 0.00 0.00 75 1023.5
20260830190204 82 111 0.0 0.0 0.00 0.00 0.00 75 1023.6
20260830190104 82 112 0.0 0.0 0.00 0.00 0.00 76 1023.6
20260830190005 82 111 0.0 0.0 0.00 0.00 0.00 76 1023.5
20260830185903 82 158 0.0 0.0 0.00 0.00 0.00 75 1023.6
20260830185805 82 158 0.0 0.0 0.00 0.00 0.00 75 1023.6
20260830185659 82 158 0.0 0.0 0.00 0.00 0.00 77 1023.6
20260830185601 82 87 0.0 0.0 0.00 0.00 0.00 75 1023.7
20260830185459 82 87 0.0 0.0 0.00 0.00 0.00 76 1023.6
20260830185400 81 259 0.0 0.0 0.00 0.00 0.00 77 1023.7
20260830185300 81 259 0.0 0.0 0.00 0.00 0.00 76 1023.7
20260830185201 81 259 0.0 0.0 0.00 0.00 0.00 77 1023.7
20260830185059 81 180 0.0 0.0 0.00 0.00 0.00 78 1023.6
20260830185001 81 161 0.0 0.0 0.00 0.00 0.00 76 1023.7
20260830184859 81 161 0.0 0.0 0.00 0.00 0.00 76 1023.7
20260830184759 81 161 0.0 0.0 0.00 0.00 0.00 75 1023.7
20260830184701 81 161 0.0 0.0 0.00 0.00 0.00 77 1023.7
20260830184558 81 161 0.0 0.0 0.00 0.00 0.00 76 1023.7
20260830184501 81 162 0.0 0.0 0.00 0.00 0.00 78 1023.7
20260830184401 81 162 0.0 0.0 0.00 0.00 0.00 77 1023.7
20260830184300 81 161 0.0 0.0 0.00 0.00 0.00 76 1023.8
20260830184159 81 152 0.0 0.0 0.00 0.00 0.00 77 1023.8
20260830184101 81 185 0.0 0.0 0.00 0.00 0.00 78 1023.9
20260830184000 81 185 0.0 0.0 0.00 0.00 0.00 78 1023.9
20260830183859 80 186 0.0 0.0 0.00 0.00 0.00 78 1023.9
20260830183800 80 188 0.0 2.0 0.00 0.00 0.00 79 1024.0
20260830183701 80 155 1.0 4.0 0.00 0.00 0.00 80 1024.0
20260830183559 80 112 1.0 4.0 0.00 0.00 0.00 79 1023.9
20260830183500 80 94 1.0 4.0 0.00 0.00 0.00 81 1024.1
20260830183359 80 87 1.0 4.0 0.00 0.00 0.00 79 1024.0
20260830183300 80 99 2.0 4.0 0.00 0.00 0.00 80 1024.0
20260830183201 80 101 2.0 4.0 0.00 0.00 0.00 80 1024.1
20260830183100 80 57 2.0 4.0 0.00 0.00 0.00 80 1024.1
20260830182959 80 51 2.0 4.0 0.00 0.00 0.00 80 1024.1
20260830182900 80 51 2.0 4.0 0.00 0.00 0.00 78 1024.1
20260830182800 80 51 2.0 4.0 0.00 0.00 0.00 79 1024.2
20260830182659 80 51 2.0 4.0 0.00 0.00 0.00 79 1024.1
20260830182559 80 50 2.0 4.0 0.00 0.00 0.00 79 1024.1
20260830182500 80 46 1.0 4.0 0.00 0.00 0.00 81 1024.2
20260830182355 79 31 1.0 4.0 0.00 0.00 0.00 81 1024.2
20260830182255 79 22 1.0 4.0 0.00 0.00 0.00 81 1024.2
20260830182156 79 5 1.0 4.0 0.00 0.00 0.00 81 1024.2
20260830182055 79 5 0.0 4.0 0.00 0.00 0.00 81 1024.2
20260830181957 79 328 0.0 4.0 0.00 0.00 0.00 80 1024.2
20260830181856 79 327 0.0 4.0 0.00 0.00 0.00 80 1024.2
20260830181755 79 348 0.0 0.0 0.00 0.00 0.00 80 1024.3
20260830181656 79 335 0.0 0.0 0.00 0.00 0.00 81 1024.2
20260830181556 79 350 0.0 0.0 0.00 0.00 0.00 80 1024.3
20260830181456 79 348 0.0 0.0 0.00 0.00 0.00 81 1024.3
20260830181357 79 355 0.0 0.0 0.00 0.00 0.00 82 1024.3
20260830181256 79 298 0.0 0.0 0.00 0.00 0.00 80 1024.3
20260830181157 79 299 0.0 0.0 0.00 0.00 0.00 80 1024.4
20260830181055 79 298 0.0 0.0 0.00 0.00 0.00 80 1024.4
20260830180957 79 301 0.0 0.0 0.00 0.00 0.00 80 1024.4
20260830180856 79 300 0.0 0.0 0.00 0.00 0.00 80 1024.4
20260830180757 79 335 0.0 0.0 0.00 0.00 0.00 80 1024.3
20260830180657 79 335 0.0 0.0 0.00 0.00 0.00 80 1024.4
20260830180556 79 334 0.0 0.0 0.00 0.00 0.00 78 1024.4
20260830180455 79 355 0.0 0.0 0.00 0.00 0.00 79 1024.4
20260830180355 79 355 0.0 0.0 0.00 0.00 0.00 81 1024.4
20260830180255 79 325 0.0 0.0 0.00 0.00 0.00 80 1024.4
20260830180157 79 321 0.0 0.0 0.00 0.00 0.00 81 1024.5
20260830180056 79 320 0.0 0.0 0.00 0.00 0.00 80 1024.5
20260830175956 79 320 0.0 0.0 0.00 0.00 0.00 79 1024.4
20260830175857 79 320 0.0 3.0 0.00 0.00 0.00 79 1024.4
20260830175755 79 24 0.0 3.0 0.00 0.00 0.00 79 1024.5
20260830175655 79 24 0.0 3.0 0.00 0.00 0.00 78 1024.5
20260830175556 79 24 0.0 3.0 0.00 0.00 0.00 78 1024.5
20260830175457 79 26 0.0 3.0 0.00 0.00 0.00 79 1024.4
20260830175355 79 26 0.0 3.0 0.00 0.00 0.00 79 1024.5
20260830175257 79 25 0.0 3.0 0.00 0.00 0.00 79 1024.6
20260830175157 79 25 0.0 3.0 0.00 0.00 0.00 80 1024.6
20260830175051 79 306 0.0 3.0 0.00 0.00 0.00 79 1024.6
20260830174953 79 306 0.0 3.0 0.00 0.00 0.00 79 1024.5
20260830174851 79 307 0.0 3.0 0.00 0.00 0.00 79 1024.6
20260830174752 79 308 0.0 0.0 0.00 0.00 0.00 79 1024.6
20260830174652 79 307 0.0 0.0 0.00 0.00 0.00 79 1024.6
20260830174551 79 309 0.0 0.0 0.00 0.00 0.00 80 1024.6
20260830174452 79 294 0.0 0.0 0.00 0.00 0.00 78 1024.7
20260830174352 79 294 0.0 0.0 0.00 0.00 0.00 79 1024.7
20260830174251 79 290 0.0 0.0 0.00 0.00 0.00 79 1024.7
20260830174152 79 290 0.0 0.0 0.00 0.00 0.00 78 1024.7
20260830174051 79 290 0.0 0.0 0.00 0.00 0.00 78 1024.7
20260830173953 79 290 0.0 0.0 0.00 0.00 0.00 78 1024.8
20260830173851 79 290 0.0 0.0 0.00 0.00 0.00 77 1024.8
20260830173751 79 290 0.0 0.0 0.00 0.00 0.00 78 1024.7
20260830173653 79 290 0.0 0.0 0.00 0.00 0.00 79 1024.8
20260830173551 79 289 0.0 0.0 0.00 0.00 0.00 80 1024.8
20260830173449 79 288 0.0 0.0 0.00 0.00 0.00 79 1024.8
20260830173349 79 288 0.0 0.0 0.00 0.00 0.00 79 1024.8
20260830173250 79 292 0.0 0.0 0.00 0.00 0.00 79 1024.9
20260830173147 79 290 0.0 0.0 0.00 0.00 0.00 80 1024.9
20260830173044 79 346 0.0 0.0 0.00 0.00 0.00 82 1024.9
20260830172944 78 5 0.0 0.0 0.00 0.00 0.00 80 1024.8
20260830172845 78 355 0.0 0.0 0.00 0.00 0.00 81 1024.9
20260830172744 78 0 0.0 0.0 0.00 0.00 0.00 81 1024.9
20260830172638 78 34 0.0 0.0 0.00 0.00 0.00 82 1025.1
20260830172537 78 48 0.0 0.0 0.00 0.00 0.00 83 1025.1
20260830172437 78 48 0.0 0.0 0.00 0.00 0.00 83 1025.1
20260830172336 78 49 0.0 0.0 0.00 0.00 0.00 83 1025.1
20260830172234 78 49 0.0 0.0 0.00 0.00 0.00 81 1025.1
20260830172135 77 49 0.0 0.0 0.00 0.00 0.00 83 1025.1
20260830172031 77 49 0.0 0.0 0.00 0.00 0.00 85 1025.2
20260830171930 77 49 0.0 0.0 0.00 0.00 0.00 84 1024.9
20260830171830 77 49 0.0 0.0 0.00 0.00 0.00 83 1025.1
20260830171727 77 49 0.0 0.0 0.00 0.00 0.00 83 1025.1
20260830171625 77 49 0.0 0.0 0.00 0.00 0.00 83 1025.1
20260830171522 76 48 0.0 0.0 0.00 0.00 0.00 84 1025.1
20260830171422 76 42 0.0 0.0 0.00 0.00 0.00 84 1025.1
20260830171323 76 24 0.0 0.0 0.00 0.00 0.00 85 1025.1
20260830171222 76 296 0.0 0.0 0.00 0.00 0.00 85 1025.2
20260830171117 76 295 0.0 0.0 0.00 0.00 0.00 85 1025.2
20260830171015 76 295 0.0 0.0 0.00 0.00 0.00 85 1025.1
20260830170916 76 296 0.0 0.0 0.00 0.00 0.00 83 1025.2
20260830170813 76 296 0.0 0.0 0.00 0.00 0.00 83 1025.3
20260830170711 76 296 0.0 0.0 0.00 0.00 0.00 84 1025.3
20260830170610 76 309 0.0 0.0 0.00 0.00 0.00 85 1025.3
20260830170511 76 310 0.0 0.0 0.00 0.00 0.00 85 1025.3
20260830170407 76 310 0.0 0.0 0.00 0.00 0.00 85 1025.3
20260830170309 76 333 0.0 0.0 0.00 0.00 0.00 84 1025.3
20260830170206 76 332 0.0 0.0 0.00 0.00 0.00 85 1025.3
20260830170101 76 332 0.0 0.0 0.00 0.00 0.00 84 1025.3
20260830170000 75 355 0.0 0.0 0.00 0.00 0.00 85 1025.4
20260830165901 76 355 0.0 0.0 0.00 0.00 0.00 85 1025.4
20260830165759 75 355 0.0 0.0 0.00 0.00 0.00 84 1025.4
20260830165700 75 355 0.0 0.0 0.00 0.00 0.00 84 1025.4
20260830165552 75 355 0.0 0.0 0.00 0.00 0.00 85 1025.4
20260830165452 75 355 0.0 0.0 0.00 0.00 0.00 85 1025.4
20260830165351 75 350 0.0 0.0 0.00 0.00 0.00 85 1025.5
20260830165251 75 308 0.0 0.0 0.00 0.00 0.00 85 1025.5
20260830165149 75 307 0.0 0.0 0.00 0.00 0.00 84 1025.5
20260830165047 75 307 0.0 0.0 0.00 0.00 0.00 84 1025.5
20260830164945 75 307 0.0 0.0 0.00 0.00 0.00 84 1025.5
20260830164846 75 307 0.0 0.0 0.00 0.00 0.00 84 1025.6
20260830164747 75 307 0.0 0.0 0.00 0.00 0.00 84 1025.6
20260830164644 75 300 0.0 0.0 0.00 0.00 0.00 84 1025.6
20260830164540 75 336 0.0 0.0 0.00 0.00 0.00 85 1025.6
20260830164437 76 346 0.0 0.0 0.00 0.00 0.00 85 1025.6
20260830164337 76 329 0.0 0.0 0.00 0.00 0.00 85 1025.5
20260830164237 76 338 0.0 0.0 0.00 0.00 0.00 85 1025.5
20260830164137 75 338 0.0 0.0 0.00 0.00 0.00 85 1025.6
20260830164033 75 69 0.0 0.0 0.00 0.00 0.00 85 1025.5
20260830163931 75 70 0.0 0.0 0.00 0.00 0.00 85 1025.6
20260830163832 75 69 0.0 0.0 0.00 0.00 0.00 85 1025.6
20260830163729 75 67 0.0 0.0 0.00 0.00 0.00 86 1025.5
20260830163628 75 41 0.0 0.0 0.00 0.00 0.00 87 1025.5
20260830163523 75 32 0.0 0.0 0.00 0.00 0.00 87 1025.6
20260830163425 75 30 0.0 0.0 0.00 0.00 0.00 87 1025.5
20260830163323 75 30 0.0 0.0 0.00 0.00 0.00 87 1025.6
20260830163224 75 28 0.0 0.0 0.00 0.00 0.00 86 1025.6
20260830163122 75 45 0.0 0.0 0.00 0.00 0.00 86 1025.6
20260830163022 74 43 0.0 0.0 0.00 0.00 0.00 85 1025.6
20260830162919 74 43 0.0 0.0 0.00 0.00 0.00 86 1025.6
20260830162819 74 44 0.0 0.0 0.00 0.00 0.00 86 1025.5
20260830162718 74 41 0.0 0.0 0.00 0.00 0.00 86 1025.5
20260830162616 74 33 0.0 0.0 0.00 0.00 0.00 86 1025.5
20260830162507 74 33 0.0 0.0 0.00 0.00 0.00 86 1025.5
20260830162409 74 0 0.0 0.0 0.00 0.00 0.00 86 1025.6
20260830162307 74 347 0.0 0.0 0.00 0.00 0.00 86 1025.6
20260830162207 74 344 0.0 0.0 0.00 0.00 0.00 86 1025.6
20260830162106 74 344 0.0 0.0 0.00 0.00 0.00 86 1025.6
20260830162005 74 344 0.0 0.0 0.00 0.00 0.00 87 1025.6
20260830161905 74 344 0.0 0.0 0.00 0.00 0.00 87 1025.6
20260830161806 74 343 0.0 0.0 0.00 0.00 0.00 87 1025.5
20260830161705 74 327 0.0 0.0 0.00 0.00 0.00 87 1025.5
20260830161606 74 5 0.0 0.0 0.00 0.00 0.00 86 1025.6
20260830161505 74 5 0.0 0.0 0.00 0.00 0.00 87 1025.5
20260830161405 74 23 0.0 0.0 0.00 0.00 0.00 87 1025.5
20260830161306 75 327 0.0 0.0 0.00 0.00 0.00 87 1025.6
20260830161205 75 311 0.0 5.0 0.00 0.00 0.00 87 1025.5
20260830161105 75 331 0.0 6.0 0.00 0.00 0.00 87 1025.5
20260830161006 75 319 0.0 6.0 0.00 0.00 0.00 87 1025.5
20260830160905 75 298 0.0 6.0 0.00 0.00 0.00 87 1025.6
20260830160805 75 324 0.0 6.0 0.00 0.00 0.00 87 1025.5
20260830160705 75 348 0.0 6.0 0.00 0.00 0.00 87 1025.5
20260830160605 75 11 0.0 6.0 0.00 0.00 0.00 87 1025.6
20260830160507 75 11 0.0 6.0 0.00 0.00 0.00 87 1025.6
20260830160406 75 5 0.0 6.0 0.00 0.00 0.00 87 1025.6
20260830160307 75 335 0.0 6.0 0.00 0.00 0.00 87 1025.6
20260830160206 75 336 0.0 6.0 0.00 0.00 0.00 87 1025.6
20260830160106 75 5 0.0 0.0 0.00 0.00 0.00 87 1025.6
20260830160005 75 0 0.0 0.0 0.00 0.00 0.00 87 1025.6
20260830155906 75 323 0.0 0.0 0.00 0.00 0.00 88 1025.6
20260830155806 74 322 0.0 0.0 0.00 0.00 0.00 88 1025.6
20260830155702 74 321 0.0 0.0 0.00 0.00 0.00 87 1025.6
20260830155601 74 38 0.0 0.0 0.00 0.00 0.00 88 1025.7
20260830155502 74 38 0.0 0.0 0.00 0.00 0.00 88 1025.7
20260830155401 74 40 0.0 0.0 0.00 0.00 0.00 88 1025.7
20260830155306 74 355 0.0 0.0 0.00 0.00 0.00 89 1025.6
20260830155201 74 9 0.0 0.0 0.00 0.00 0.00 89 1025.7
20260830155056 74 348 0.0 0.0 0.00 0.00 0.00 89 1025.5
20260830154955 74 325 0.0 2.0 0.00 0.00 0.00 89 1025.6
20260830154856 74 323 0.0 3.0 0.00 0.00 0.00 89 1025.6
20260830154755 74 346 0.0 3.0 0.00 0.00 0.00 90 1025.6
20260830154653 74 55 0.0 3.0 0.00 0.00 0.00 90 1025.5
20260830154549 73 67 0.0 3.0 0.00 0.00 0.00 90 1025.6
20260830154450 73 72 0.0 3.0 0.00 0.00 0.00 90 1025.6
20260830154347 73 67 0.0 3.0 0.00 0.00 0.00 90 1025.6
20260830154249 73 58 0.0 3.0 0.00 0.00 0.00 90 1025.6
20260830154146 72 57 0.0 3.0 0.00 0.00 0.00 90 1025.7
20260830153918 72 50 0.0 2.0 0.00 0.00 0.00 91 1025.7
20260830153818 72 49 0.0 0.0 0.00 0.00 0.00 91 1025.7
20260830153717 72 49 0.0 0.0 0.00 0.00 0.00 91 1025.7
20260830153617 72 49 0.0 0.0 0.00 0.00 0.00 91 1025.7
20260830153517 72 49 0.0 0.0 0.00 0.00 0.00 91 1025.7
20260830153418 72 49 0.0 0.0 0.00 0.00 0.00 91 1025.7
20260830153316 72 49 0.0 0.0 0.00 0.00 0.00 91 1025.7
20260830153215 72 28 0.0 0.0 0.00 0.00 0.00 91 1025.8
20260830153113 72 327 0.0 0.0 0.00 0.00 0.00 91 1025.8
20260830153011 72 327 0.0 0.0 0.00 0.00 0.00 91 1025.7
20260830152906 72 327 0.0 0.0 0.00 0.00 0.00 91 1025.7
20260830152805 72 327 0.0 0.0 0.00 0.00 0.00 92 1025.8
20260830152705 72 328 0.0 0.0 0.00 0.00 0.00 92 1025.8
20260830152606 72 329 0.0 0.0 0.00 0.00 0.00 92 1025.8
20260830152505 71 315 0.0 0.0 0.00 0.00 0.00 92 1025.7
20260830152357 71 333 0.0 0.0 0.00 0.00 0.00 92 1025.7
20260830152257 71 323 0.0 0.0 0.00 0.00 0.00 92 1025.6
20260830152156 71 340 0.0 0.0 0.00 0.00 0.00 92 1025.7
20260830152055 71 351 0.0 0.0 0.00 0.00 0.00 93 1025.7
20260830151954 71 5 0.0 0.0 0.00 0.00 0.00 93 1025.8
20260830151849 71 329 0.0 0.0 0.00 0.00 0.00 93 1025.7
20260830151748 71 329 0.0 0.0 0.00 0.00 0.00 93 1025.8
20260830151647 71 329 0.0 0.0 0.00 0.00 0.00 93 1025.7
20260830151547 71 329 0.0 0.0 0.00 0.00 0.00 93 1025.7
20260830151448 71 329 0.0 0.0 0.00 0.00 0.00 93 1025.7
20260830151344 71 329 0.0 0.0 0.00 0.00 0.00 93 1025.8
20260830151242 71 329 0.0 0.0 0.00 0.00 0.00 93 1025.8
20260830151142 71 329 0.0 0.0 0.00 0.00 0.00 93 1025.8
20260830151042 71 329 0.0 0.0 0.00 0.00 0.00 93 1025.8
20260830150941 71 329 0.0 0.0 0.00 0.00 0.00 93 1025.8
20260830150831 71 329 0.0 0.0 0.00 0.00 0.00 93 1025.8
20260830150732 71 329 0.0 0.0 0.00 0.00 0.00 93 1025.7
20260830150632 71 329 0.0 0.0 0.00 0.00 0.00 94 1025.7
20260830150531 71 293 0.0 0.0 0.00 0.00 0.00 94 1025.7
20260830150432 71 292 0.0 0.0 0.00 0.00 0.00 94 1025.7
20260830150331 71 292 0.0 0.0 0.00 0.00 0.00 94 1025.7
20260830150230 71 323 0.0 0.0 0.00 0.00 0.00 94 1025.7
20260830150129 71 314 0.0 0.0 0.00 0.00 0.00 94 1025.7
20260830150028 71 14 0.0 0.0 0.00 0.00 0.00 94 1025.7
20260830145926 71 335 0.0 0.0 0.00 0.00 0.00 94 1025.7
20260830145822 71 337 0.0 0.0 0.00 0.00 0.00 94 1025.7
20260830145719 71 338 0.0 0.0 0.00 0.00 0.00 94 1025.9
20260830145620 71 339 0.0 0.0 0.00 0.00 0.00 94 1025.7
20260830145520 71 339 0.0 0.0 0.00 0.00 0.00 94 1025.7
20260830145419 71 339 0.0 0.0 0.00 0.00 0.00 94 1025.7
20260830145310 71 341 0.0 0.0 0.00 0.00 0.00 94 1025.8
20260830145210 71 342 0.0 0.0 0.00 0.00 0.00 94 1025.8
20260830145110 71 319 0.0 0.0 0.00 0.00 0.00 94 1025.8
20260830145010 71 331 0.0 0.0 0.00 0.00 0.00 94 1025.9
20260830144910 71 332 0.0 0.0 0.00 0.00 0.00 94 1025.9
20260830144808 71 315 0.0 0.0 0.00 0.00 0.00 94 1025.9
20260830144706 71 316 0.0 0.0 0.00 0.00 0.00 94 1025.8
20260830144607 71 302 0.0 0.0 0.00 0.00 0.00 94 1025.9
20260830144505 71 311 0.0 0.0 0.00 0.00 0.00 95 1025.9
20260830144403 71 329 0.0 0.0 0.00 0.00 0.00 95 1025.9
20260830144300 71 292 0.0 0.0 0.00 0.00 0.00 95 1025.8
20260830144157 71 315 0.0 0.0 0.00 0.00 0.00 95 1025.9
20260830144058 71 319 0.0 0.0 0.00 0.00 0.00 95 1025.8
20260830143958 71 343 0.0 0.0 0.00 0.00 0.00 95 1025.8
20260830143858 71 344 0.0 0.0 0.00 0.00 0.00 95 1025.8
20260830143747 71 34 0.0 0.0 0.00 0.00 0.00 96 1025.9
20260830143648 71 93 0.0 0.0 0.00 0.00 0.00 96 1025.9
20260830143547 71 103 0.0 0.0 0.00 0.00 0.00 96 1025.9
20260830143446 71 103 0.0 0.0 0.00 0.00 0.00 96 1025.9
20260830143348 71 103 0.0 0.0 0.00 0.00 0.00 96 1025.8
20260830143243 71 103 0.0 0.0 0.00 0.00 0.00 96 1025.8
20260830143141 71 103 0.0 0.0 0.00 0.00 0.00 96 1025.8
20260830143041 71 120 0.0 0.0 0.00 0.00 0.00 96 1025.8
20260830142943 71 119 0.0 0.0 0.00 0.00 0.00 97 1025.8
20260830142842 71 118 0.0 0.0 0.00 0.00 0.00 97 1025.8
20260830142736 71 117 0.0 0.0 0.00 0.00 0.00 97 1025.8
20260830142638 71 117 0.0 0.0 0.00 0.00 0.00 97 1025.9
20260830142537 71 117 0.0 0.0 0.00 0.00 0.00 97 1025.9
20260830142437 71 99 0.0 0.0 0.00 0.00 0.00 97 1025.8
20260830142336 70 84 0.0 0.0 0.00 0.00 0.00 97 1025.9
20260830142229 70 45 0.0 0.0 0.00 0.00 0.00 97 1025.8
20260830142125 70 53 0.0 0.0 0.00 0.00 0.00 97 1025.8
20260830142024 70 79 0.0 0.0 0.00 0.00 0.00 97 1025.8
20260830141926 70 90 0.0 0.0 0.00 0.00 0.00 98 1025.7
20260830141825 70 92 0.0 0.0 0.00 0.00 0.00 98 1025.7
20260830141720 70 144 0.0 0.0 0.00 0.00 0.00 97 1025.8
20260830141620 70 151 0.0 0.0 0.00 0.00 0.00 97 1025.8
20260830141521 69 78 0.0 0.0 0.00 0.00 0.00 97 1025.8
20260830141420 69 77 0.0 0.0 0.00 0.00 0.00 97 1025.7
20260830141320 69 43 0.0 0.0 0.00 0.00 0.00 97 1025.7
20260830141216 69 43 0.0 0.0 0.00 0.00 0.00 97 1025.8
20260830141118 69 34 0.0 0.0 0.00 0.00 0.00 97 1025.8
20260830141016 69 34 0.0 0.0 0.00 0.00 0.00 97 1025.7
20260830140915 69 34 0.0 0.0 0.00 0.00 0.00 97 1025.7
20260830140814 69 34 0.0 0.0 0.00 0.00 0.00 97 1025.7
20260830140706 69 34 0.0 0.0 0.00 0.00 0.00 97 1025.6
20260830140604 69 36 0.0 0.0 0.00 0.00 0.00 97 1025.6
20260830140502 69 33 0.0 0.0 0.00 0.00 0.00 97 1025.7
20260830140405 69 32 0.0 0.0 0.00 0.00 0.00 97 1025.6
20260830140303 69 31 0.0 0.0 0.00 0.00 0.00 97 1025.6
20260830140158 69 30 0.0 0.0 0.00 0.00 0.00 97 1025.7
20260830140057 69 80 0.0 0.0 0.00 0.00 0.00 97 1025.6
20260830135957 69 80 0.0 0.0 0.00 0.00 0.00 97 1025.7
20260830135858 69 80 0.0 0.0 0.00 0.00 0.00 97 1025.6
20260830135757 69 80 0.0 0.0 0.00 0.00 0.00 97 1025.6
20260830135657 69 80 0.0 0.0 0.00 0.00 0.00 97 1025.6
20260830135557 69 80 0.0 0.0 0.00 0.00 0.00 97 1025.6
20260830135455 69 80 0.0 0.0 0.00 0.00 0.00 97 1025.6
20260830135353 69 80 0.0 0.0 0.00 0.00 0.00 97 1025.5
20260830135251 69 80 0.0 0.0 0.00 0.00 0.00 97 1025.5
20260830135144 69 80 0.0 0.0 0.00 0.00 0.00 97 1025.5
20260830135042 69 80 0.0 0.0 0.00 0.00 0.00 97 1025.5
20260830134941 69 80 0.0 0.0 0.00 0.00 0.00 97 1025.5
20260830134842 69 80 0.0 0.0 0.00 0.00 0.00 97 1025.5
20260830134742 69 80 0.0 0.0 0.00 0.00 0.00 97 1025.5
20260830134638 69 80 0.0 0.0 0.00 0.00 0.00 97 1025.6
20260830134537 69 80 0.0 0.0 0.00 0.00 0.00 97 1025.5
20260830134438 69 80 0.0 0.0 0.00 0.00 0.00 97 1025.5
20260830134338 69 80 0.0 0.0 0.00 0.00 0.00 97 1025.6
20260830134236 69 80 0.0 0.0 0.00 0.00 0.00 97 1025.6
20260830134136 69 80 0.0 0.0 0.00 0.00 0.00 97 1025.5
20260830134033 69 80 0.0 0.0 0.00 0.00 0.00 97 1025.5
20260830133933 69 80 0.0 0.0 0.00 0.00 0.00 97 1025.6
20260830133832 69 80 0.0 0.0 0.00 0.00 0.00 97 1025.6
20260830133730 69 80 0.0 0.0 0.00 0.00 0.00 97 1025.6
20260830133624 69 80 0.0 0.0 0.00 0.00 0.00 97 1025.6
20260830133524 69 80 0.0 0.0 0.00 0.00 0.00 97 1025.6
20260830133422 69 80 0.0 0.0 0.00 0.00 0.00 97 1025.5
20260830133321 69 80 0.0 0.0 0.00 0.00 0.00 97 1025.5
20260830133220 69 80 0.0 0.0 0.00 0.00 0.00 97 1025.6
20260830133115 69 80 0.0 0.0 0.00 0.00 0.00 97 1025.7
20260830133012 69 80 0.0 0.0 0.00 0.00 0.00 97 1025.6
20260830132914 69 80 0.0 0.0 0.00 0.00 0.00 97 1025.7
20260830132814 69 80 0.0 0.0 0.00 0.00 0.00 97 1025.6
20260830132714 69 80 0.0 0.0 0.00 0.00 0.00 97 1025.7
20260830132613 69 80 0.0 0.0 0.00 0.00 0.00 97 1025.7
20260830132512 69 80 0.0 0.0 0.00 0.00 0.00 97 1025.7
20260830132410 69 80 0.0 0.0 0.00 0.00 0.00 97 1025.7
20260830132310 69 80 0.0 0.0 0.00 0.00 0.00 97 1025.7
20260830132207 69 80 0.0 0.0 0.00 0.00 0.00 97 1025.7
20260830132101 69 80 0.0 0.0 0.00 0.00 0.00 97 1025.7
20260830132002 69 115 0.0 0.0 0.00 0.00 0.00 97 1025.7
20260830131900 69 115 0.0 0.0 0.00 0.00 0.00 97 1025.7
20260830131800 69 115 0.0 0.0 0.00 0.00 0.00 97 1025.7
20260830131658 69 115 0.0 0.0 0.00 0.00 0.00 97 1025.8
20260830131555 69 115 0.0 0.0 0.00 0.00 0.00 97 1025.8
20260830131454 69 115 0.0 0.0 0.00 0.00 0.00 97 1025.8
20260830131356 69 115 0.0 0.0 0.00 0.00 0.00 97 1025.8
20260830131254 69 115 0.0 0.0 0.00 0.00 0.00 97 1025.8
20260830131152 69 115 0.0 0.0 0.00 0.00 0.00 97 1025.8
20260830131051 69 115 0.0 0.0 0.00 0.00 0.00 97 1025.9
20260830130950 69 115 0.0 0.0 0.00 0.00 0.00 97 1025.8
20260830130849 69 115 0.0 0.0 0.00 0.00 0.00 97 1025.8
20260830130748 69 115 0.0 0.0 0.00 0.00 0.00 97 1025.9
20260830130646 69 115 0.0 0.0 0.00 0.00 0.00 97 1025.8
20260830130538 69 115 0.0 0.0 0.00 0.00 0.00 97 1025.9
20260830130440 69 115 0.0 0.0 0.00 0.00 0.00 97 1025.9
20260830130340 69 115 0.0 0.0 0.00 0.00 0.00 97 1025.8
20260830130238 69 115 0.0 0.0 0.00 0.00 0.00 97 1025.9
20260830130135 69 115 0.0 0.0 0.00 0.00 0.00 97 1025.9
20260830130036 69 115 0.0 0.0 0.00 0.00 0.00 97 1025.8
20260830125933 69 115 0.0 0.0 0.00 0.00 0.00 97 1025.8
20260830125834 69 115 0.0 0.0 0.00 0.00 0.00 97 1025.8
20260830125732 69 115 0.0 0.0 0.00 0.00 0.00 97 1025.8
20260830125630 69 115 0.0 0.0 0.00 0.00 0.00 97 1025.8
20260830125529 69 115 0.0 0.0 0.00 0.00 0.00 97 1025.8
20260830125428 69 115 0.0 0.0 0.00 0.00 0.00 97 1025.9
20260830125327 69 115 0.0 0.0 0.00 0.00 0.00 97 1025.8
20260830125226 69 115 0.0 0.0 0.00 0.00 0.00 97 1025.8
20260830125124 69 115 0.0 0.0 0.00 0.00 0.00 97 1025.7
20260830125019 69 115 0.0 0.0 0.00 0.00 0.00 97 1025.7
20260830124918 69 115 0.0 0.0 0.00 0.00 0.00 97 1025.7
20260830124817 69 115 0.0 0.0 0.00 0.00 0.00 97 1025.7
20260830124716 69 115 0.0 0.0 0.00 0.00 0.00 97 1025.7
20260830124614 69 115 0.0 0.0 0.00 0.00 0.00 97 1025.7
20260830124511 69 115 0.0 0.0 0.00 0.00 0.00 97 1025.7
20260830124412 69 115 0.0 0.0 0.00 0.00 0.00 97 1025.7
20260830124309 69 115 0.0 0.0 0.00 0.00 0.00 97 1025.7
20260830124209 69 115 0.0 0.0 0.00 0.00 0.00 97 1025.7
20260830124108 69 115 0.0 0.0 0.00 0.00 0.00 97 1025.7
20260830124003 69 115 0.0 0.0 0.00 0.00 0.00 97 1025.7
20260830123904 69 115 0.0 0.0 0.00 0.00 0.00 97 1025.6
20260830123803 69 115 0.0 0.0 0.00 0.00 0.00 97 1025.6
20260830123704 69 115 0.0 0.0 0.00 0.00 0.00 97 1025.6
20260830123602 69 115 0.0 0.0 0.00 0.00 0.00 97 1025.6
20260830123452 69 115 0.0 0.0 0.00 0.00 0.00 97 1025.6
20260830123352 69 115 0.0 0.0 0.00 0.00 0.00 97 1025.5
20260830123250 69 115 0.0 0.0 0.00 0.00 0.00 97 1025.5
20260830123152 69 115 0.0 0.0 0.00 0.00 0.00 97 1025.5
20260830123052 69 115 0.0 0.0 0.00 0.00 0.00 97 1025.5
20260830122951 69 115 0.0 0.0 0.00 0.00 0.00 97 1025.6
20260830122850 69 115 0.0 0.0 0.00 0.00 0.00 97 1025.5
20260830122750 69 115 0.0 0.0 0.00 0.00 0.00 97 1025.5
20260830122648 69 115 0.0 0.0 0.00 0.00 0.00 97 1025.5
20260830122545 69 115 0.0 0.0 0.00 0.00 0.00 97 1025.5
20260830122446 69 115 0.0 0.0 0.00 0.00 0.00 97 1025.5
20260830122342 69 115 0.0 0.0 0.00 0.00 0.00 97 1025.5
20260830122244 69 115 0.0 0.0 0.00 0.00 0.00 97 1025.4
20260830122143 68 115 0.0 0.0 0.00 0.00 0.00 97 1025.5
20260830122040 68 115 0.0 0.0 0.00 0.00 0.00 97 1025.5
20260830121930 68 115 0.0 0.0 0.00 0.00 0.00 97 1025.4
20260830121831 69 115 0.0 0.0 0.00 0.00 0.00 97 1025.4
20260830121732 69 115 0.0 0.0 0.00 0.00 0.00 97 1025.3
20260830121631 68 115 0.0 0.0 0.00 0.00 0.00 97 1025.3
20260830121529 69 115 0.0 0.0 0.00 0.00 0.00 97 1025.3
20260830121430 68 115 0.0 0.0 0.00 0.00 0.00 97 1025.2
20260830121327 69 114 0.0 0.0 0.00 0.00 0.00 97 1025.2
20260830121227 69 113 0.0 0.0 0.00 0.00 0.00 97 1025.2
20260830121125 68 113 0.0 0.0 0.00 0.00 0.00 97 1025.2
20260830121024 69 113 0.0 0.0 0.00 0.00 0.00 97 1025.1
20260830120924 69 113 0.0 0.0 0.00 0.00 0.00 97 1025.2
20260830120822 68 113 0.0 0.0 0.00 0.00 0.00 97 1025.1
20260830120721 68 113 0.0 0.0 0.00 0.00 0.00 97 1025.2
20260830120620 68 120 0.0 0.0 0.00 0.00 0.00 97 1025.2
20260830120517 68 122 0.0 0.0 0.00 0.00 0.00 97 1025.2
20260830120413 68 144 0.0 0.0 0.00 0.00 0.00 97 1025.2
20260830120312 68 144 0.0 0.0 0.00 0.00 0.00 97 1025.2
20260830120211 68 146 0.0 0.0 0.00 0.00 0.00 97 1025.2
20260830120110 68 147 0.0 0.0 0.00 0.00 0.00 97 1025.1
20260830120008 68 150 0.0 0.0 0.00 0.00 0.00 97 1025.1
20260830115901 68 143 0.0 0.0 0.00 0.00 0.00 97 1025.2
20260830115801 68 107 0.0 0.0 0.00 0.00 0.00 97 1025.2
20260830115701 68 107 0.0 0.0 0.00 0.00 0.00 97 1025.1
20260830115602 68 106 0.0 0.0 0.00 0.00 0.00 97 1025.1
20260830115502 68 102 0.0 0.0 0.00 0.00 0.00 97 1025.1
20260830115358 68 127 0.0 0.0 0.00 0.00 0.00 97 1025.1
20260830115254 68 126 0.0 0.0 0.00 0.00 0.00 97 1024.9
20260830115156 68 126 0.0 0.0 0.00 0.00 0.00 97 1025.1
20260830115055 68 128 0.0 0.0 0.00 0.00 0.00 97 1025.1
20260830114955 68 128 0.0 0.0 0.00 0.00 0.00 97 1024.9
20260830114846 68 122 0.0 0.0 0.00 0.00 0.00 97 1025.1
20260830114745 68 122 0.0 0.0 0.00 0.00 0.00 97 1025.1
20260830114644 68 121 0.0 0.0 0.00 0.00 0.00 97 1024.9
20260830114545 68 121 0.0 0.0 0.00 0.00 0.00 97 1025.1
20260830114445 68 121 0.0 0.0 0.00 0.00 0.00 97 1024.9
20260830114346 68 121 0.0 0.0 0.00 0.00 0.00 97 1025.1
20260830114243 68 121 0.0 0.0 0.00 0.00 0.00 97 1024.9
20260830114144 68 121 0.0 0.0 0.00 0.00 0.00 97 1024.9
20260830114041 68 121 0.0 0.0 0.00 0.00 0.00 97 1024.9
20260830113939 68 123 0.0 0.0 0.00 0.00 0.00 97 1024.9
20260830113840 68 123 0.0 0.0 0.00 0.00 0.00 97 1024.9
20260830113737 68 123 0.0 0.0 0.00 0.00 0.00 97 1024.9
20260830113638 68 123 0.0 0.0 0.00 0.00 0.00 97 1024.9
20260830113535 68 124 0.0 0.0 0.00 0.00 0.00 97 1024.9
20260830113434 68 125 0.0 0.0 0.00 0.00 0.00 97 1024.8
20260830113329 68 125 0.0 0.0 0.00 0.00 0.00 97 1024.8
20260830113227 68 125 0.0 0.0 0.00 0.00 0.00 97 1024.8
20260830113126 68 125 0.0 0.0 0.00 0.00 0.00 97 1024.8
20260830113026 68 125 0.0 0.0 0.00 0.00 0.00 97 1024.8
20260830112923 68 126 0.0 0.0 0.00 0.00 0.00 97 1024.7
20260830112821 68 125 0.0 0.0 0.00 0.00 0.00 97 1024.8
20260830112721 68 125 0.0 0.0 0.00 0.00 0.00 97 1024.8
20260830112621 68 125 0.0 0.0 0.00 0.00 0.00 97 1024.8
20260830112519 68 125 0.0 0.0 0.00 0.00 0.00 97 1024.8
20260830112417 68 125 0.0 0.0 0.00 0.00 0.00 97 1024.8
20260830112318 68 125 0.0 0.0 0.00 0.00 0.00 97 1024.8
20260830112215 68 125 0.0 0.0 0.00 0.00 0.00 97 1024.8
20260830112113 68 125 0.0 0.0 0.00 0.00 0.00 97 1024.9
20260830112014 68 126 0.0 0.0 0.00 0.00 0.00 97 1024.8
20260830111912 68 125 0.0 0.0 0.00 0.00 0.00 97 1024.8
20260830111803 68 125 0.0 0.0 0.00 0.00 0.00 97 1024.8
20260830111701 68 125 0.0 0.0 0.00 0.00 0.00 97 1024.7
20260830111601 68 125 0.0 0.0 0.00 0.00 0.00 97 1024.7
20260830111501 68 125 0.0 0.0 0.00 0.00 0.00 97 1024.8
20260830111402 68 125 0.0 0.0 0.00 0.00 0.00 97 1024.7
20260830111257 68 125 0.0 0.0 0.00 0.00 0.00 97 1024.8
20260830111157 68 125 0.0 0.0 0.00 0.00 0.00 97 1024.8
20260830111054 68 125 0.0 0.0 0.00 0.00 0.00 97 1024.7
20260830110956 68 125 0.0 0.0 0.00 0.00 0.00 97 1024.8
20260830110856 68 125 0.0 0.0 0.00 0.00 0.00 97 1024.8
20260830110756 68 125 0.0 0.0 0.00 0.00 0.00 97 1024.7
20260830110654 67 126 0.0 0.0 0.00 0.00 0.00 97 1024.6
20260830110552 68 126 0.0 0.0 0.00 0.00 0.00 97 1024.7
20260830110450 68 126 0.0 0.0 0.00 0.00 0.00 97 1024.7
20260830110349 67 126 0.0 0.0 0.00 0.00 0.00 97 1024.6
20260830110249 68 126 0.0 0.0 0.00 0.00 0.00 97 1024.7
20260830110148 68 126 0.0 0.0 0.00 0.00 0.00 97 1024.6
20260830110044 68 126 0.0 0.0 0.00 0.00 0.00 97 1024.6
20260830105945 67 126 0.0 0.0 0.00 0.00 0.00 96 1024.6
20260830105846 68 126 0.0 0.0 0.00 0.00 0.00 97 1024.5
20260830105742 67 126 0.0 0.0 0.00 0.00 0.00 96 1024.5
20260830105641 68 126 0.0 0.0 0.00 0.00 0.00 96 1024.5
20260830105538 67 126 0.0 0.0 0.00 0.00 0.00 96 1024.5
20260830105440 68 126 0.0 0.0 0.00 0.00 0.00 96 1024.5
20260830105338 68 126 0.0 0.0 0.00 0.00 0.00 96 1024.5
20260830105229 68 126 0.0 0.0 0.00 0.00 0.00 96 1024.4
20260830105128 68 126 0.0 0.0 0.00 0.00 0.00 96 1024.4
20260830105027 68 126 0.0 0.0 0.00 0.00 0.00 96 1024.4
20260830104925 68 126 0.0 0.0 0.00 0.00 0.00 97 1024.4
20260830104824 68 126 0.0 0.0 0.00 0.00 0.00 97 1024.3
20260830104718 68 126 0.0 0.0 0.00 0.00 0.00 97 1024.3
20260830104616 68 126 0.0 0.0 0.00 0.00 0.00 97 1024.4
20260830104517 68 126 0.0 0.0 0.00 0.00 0.00 97 1024.3
20260830104416 68 126 0.0 0.0 0.00 0.00 0.00 97 1024.3
20260830104313 68 126 0.0 0.0 0.00 0.00 0.00 97 1024.3
20260830104213 68 126 0.0 0.0 0.00 0.00 0.00 97 1024.3
20260830104112 68 126 0.0 0.0 0.00 0.00 0.00 97 1024.3
20260830104011 68 126 0.0 0.0 0.00 0.00 0.00 97 1024.2
20260830103910 68 126 0.0 0.0 0.00 0.00 0.00 97 1024.2
20260830103807 68 126 0.0 0.0 0.00 0.00 0.00 97 1024.3
20260830103704 68 126 0.0 0.0 0.00 0.00 0.00 97 1024.2
20260830103604 68 126 0.0 0.0 0.00 0.00 0.00 97 1024.2
20260830103502 68 126 0.0 0.0 0.00 0.00 0.00 97 1024.2
20260830103404 68 126 0.0 0.0 0.00 0.00 0.00 97 1024.2
20260830103301 68 126 0.0 0.0 0.00 0.00 0.00 97 1024.2
20260830103152 68 126 0.0 0.0 0.00 0.00 0.00 97 1024.2
20260830103052 68 126 0.0 0.0 0.00 0.00 0.00 97 1024.3
20260830102950 68 126 0.0 0.0 0.00 0.00 0.00 97 1024.2
20260830102852 68 126 0.0 0.0 0.00 0.00 0.00 97 1024.2
20260830102751 68 126 0.0 0.0 0.00 0.00 0.00 97 1024.2
20260830102652 68 126 0.0 0.0 0.00 0.00 0.00 97 1024.2
20260830102548 68 126 0.0 0.0 0.00 0.00 0.00 97 1024.2
20260830102450 68 126 0.0 0.0 0.00 0.00 0.00 97 1024.3
20260830102346 68 126 0.0 0.0 0.00 0.00 0.00 97 1024.2
20260830102246 68 126 0.0 0.0 0.00 0.00 0.00 97 1024.2
20260830102144 68 126 0.0 0.0 0.00 0.00 0.00 97 1024.2
20260830102044 68 126 0.0 0.0 0.00 0.00 0.00 97 1024.1
20260830101941 68 126 0.0 0.0 0.00 0.00 0.00 97 1024.2
20260830101840 68 126 0.0 0.0 0.00 0.00 0.00 97 1024.2
20260830101740 68 126 0.0 0.0 0.00 0.00 0.00 97 1024.2
20260830101630 68 126 0.0 0.0 0.00 0.00 0.00 97 1024.2
20260830101530 68 126 0.0 0.0 0.00 0.00 0.00 97 1024.2
20260830101428 68 126 0.0 0.0 0.00 0.00 0.00 97 1024.2
20260830101330 68 126 0.0 0.0 0.00 0.00 0.00 97 1024.1
20260830101227 68 126 0.0 0.0 0.00 0.00 0.00 97 1024.1
20260830101124 68 126 0.0 0.0 0.00 0.00 0.00 97 1024.1
20260830101020 68 126 0.0 0.0 0.00 0.00 0.00 97 1024.1
20260830100922 68 126 0.0 0.0 0.00 0.00 0.00 97 1024.1
20260830100822 68 126 0.0 0.0 0.00 0.00 0.00 97 1024.1
20260830100721 68 126 0.0 0.0 0.00 0.00 0.00 97 1024.1
20260830100617 68 126 0.0 0.0 0.00 0.00 0.00 97 1024.1
20260830100515 68 126 0.0 0.0 0.00 0.00 0.00 97 1024.1
20260830100413 68 126 0.0 0.0 0.00 0.00 0.00 97 1024.1
20260830100313 68 126 0.0 0.0 0.00 0.00 0.00 97 1024.0
20260830100214 68 126 0.0 0.0 0.00 0.00 0.00 97 1023.9
20260830100107 68 126 0.0 0.0 0.00 0.00 0.00 97 1023.9
20260830100008 68 126 0.0 0.0 0.00 0.00 0.00 97 1024.0
20260830095904 68 126 0.0 0.0 0.00 0.00 0.00 97 1024.0
20260830095806 68 126 0.0 0.0 0.00 0.00 0.00 97 1024.1
20260830095704 68 126 0.0 0.0 0.00 0.00 0.00 97 1024.1
20260830095604 68 126 0.0 0.0 0.00 0.00 0.00 97 1024.1
20260830095503 68 126 0.0 0.0 0.00 0.00 0.00 97 1024.1
20260830095403 68 126 0.0 0.0 0.00 0.00 0.00 96 1024.1
20260830095306 68 126 0.0 0.0 0.00 0.00 0.00 96 1024.0
20260830095200 68 126 0.0 0.0 0.00 0.00 0.00 97 1024.0
20260830095101 68 126 0.0 0.0 0.00 0.00 0.00 97 1024.0
20260830095000 68 126 0.0 0.0 0.00 0.00 0.00 97 1024.1
20260830094900 68 126 0.0 0.0 0.00 0.00 0.00 97 1024.0
20260830094757 68 126 0.0 0.0 0.00 0.00 0.00 97 1024.0
20260830094658 68 126 0.0 0.0 0.00 0.00 0.00 96 1024.1
20260830094557 68 126 0.0 0.0 0.00 0.00 0.00 96 1024.1
20260830094454 68 126 0.0 0.0 0.00 0.00 0.00 96 1024.1
20260830094355 68 126 0.0 0.0 0.00 0.00 0.00 96 1024.0
20260830094253 68 126 0.0 0.0 0.00 0.00 0.00 97 1024.0
20260830094151 68 126 0.0 0.0 0.00 0.00 0.00 96 1024.1
20260830094052 68 126 0.0 0.0 0.00 0.00 0.00 96 1024.1
20260830093948 68 126 0.0 0.0 0.00 0.00 0.00 97 1024.0
20260830093850 68 126 0.0 0.0 0.00 0.00 0.00 96 1024.1
20260830093747 68 126 0.0 0.0 0.00 0.00 0.00 96 1024.1
20260830093648 68 126 0.0 0.0 0.00 0.00 0.00 96 1024.1
20260830093546 68 126 0.0 0.0 0.00 0.00 0.00 96 1024.1
20260830093442 68 126 0.0 0.0 0.00 0.00 0.00 96 1024.1
20260830093344 68 126 0.0 0.0 0.00 0.00 0.00 96 1024.1
20260830093240 68 126 0.0 0.0 0.00 0.00 0.00 96 1024.0
20260830093141 68 126 0.0 0.0 0.00 0.00 0.00 96 1024.0
20260830093041 68 126 0.0 0.0 0.00 0.00 0.00 96 1024.0
20260830092940 68 126 0.0 0.0 0.00 0.00 0.00 96 1024.0
20260830092834 68 126 0.0 0.0 0.00 0.00 0.00 96 1024.0
20260830092734 68 126 0.0 0.0 0.00 0.00 0.00 96 1024.0
20260830092632 68 126 0.0 0.0 0.00 0.00 0.00 96 1024.1
20260830092534 68 126 0.0 0.0 0.00 0.00 0.00 96 1024.0
20260830092432 68 126 0.0 0.0 0.00 0.00 0.00 96 1024.0
20260830092334 68 126 0.0 0.0 0.00 0.00 0.00 96 1024.0
20260830092232 68 126 0.0 0.0 0.00 0.00 0.00 96 1024.0
20260830092130 68 126 0.0 0.0 0.00 0.00 0.00 96 1024.1
20260830092032 68 126 0.0 0.0 0.00 0.00 0.00 96 1023.9
20260830091929 68 126 0.0 0.0 0.00 0.00 0.00 96 1024.0
20260830091830 68 126 0.0 0.0 0.00 0.00 0.00 96 1023.9
20260830091728 68 126 0.0 0.0 0.00 0.00 0.00 96 1023.9
20260830091629 68 126 0.0 0.0 0.00 0.00 0.00 96 1024.0
20260830091529 68 126 0.0 0.0 0.00 0.00 0.00 96 1024.0
20260830091429 68 126 0.0 0.0 0.00 0.00 0.00 96 1023.9
20260830091327 68 126 0.0 0.0 0.00 0.00 0.00 96 1024.1
20260830091228 68 126 0.0 0.0 0.00 0.00 0.00 96 1024.1
20260830091124 68 126 0.0 0.0 0.00 0.00 0.00 96 1024.1
20260830091023 68 126 0.0 0.0 0.00 0.00 0.00 96 1024.1
20260830090923 68 126 0.0 0.0 0.00 0.00 0.00 96 1024.1
20260830090823 68 126 0.0 0.0 0.00 0.00 0.00 96 1024.1
20260830090723 68 126 0.0 0.0 0.00 0.00 0.00 96 1024.0
20260830090623 68 126 0.0 0.0 0.00 0.00 0.00 96 1024.1
20260830090524 68 126 0.0 0.0 0.00 0.00 0.00 96 1024.0
20260830090424 68 126 0.0 0.0 0.00 0.00 0.00 96 1024.1
20260830090323 68 126 0.0 0.0 0.00 0.00 0.00 96 1024.0
20260830090223 68 126 0.0 0.0 0.00 0.00 0.00 96 1024.1
20260830090122 68 113 0.0 0.0 0.00 0.00 0.00 96 1024.1
20260830090024 68 114 0.0 0.0 0.00 0.00 0.00 96 1024.1
20260830085922 68 114 0.0 0.0 0.00 0.00 0.00 96 1024.1
20260830085823 68 115 0.0 0.0 0.00 0.00 0.00 96 1024.2
20260830085722 68 115 0.0 0.0 0.00 0.00 0.00 96 1024.1
20260830085624 68 115 0.0 0.0 0.00 0.00 0.00 96 1024.1
20260830085522 68 115 0.0 0.0 0.00 0.00 0.00 96 1024.1
20260830085424 68 110 0.0 0.0 0.00 0.00 0.00 96 1024.1
20260830085323 68 112 0.0 0.0 0.00 0.00 0.00 96 1024.2
20260830085222 68 113 0.0 0.0 0.00 0.00 0.00 96 1024.2
20260830085122 68 109 0.0 0.0 0.00 0.00 0.00 96 1024.1
20260830085023 68 111 0.0 0.0 0.00 0.00 0.00 96 1024.1
20260830084923 68 111 0.0 0.0 0.00 0.00 0.00 96 1024.0
20260830084822 68 109 0.0 0.0 0.00 0.00 0.00 96 1024.1
20260830084722 68 117 0.0 0.0 0.00 0.00 0.00 96 1024.1
20260830084623 69 119 0.0 0.0 0.00 0.00 0.00 96 1024.2
20260830084515 69 119 0.0 0.0 0.00 0.00 0.00 96 1024.1
20260830084415 69 119 0.0 0.0 0.00 0.00 0.00 96 1024.1
20260830084314 69 119 0.0 0.0 0.00 0.00 0.00 96 1024.1
20260830084215 69 119 0.0 0.0 0.00 0.00 0.00 96 1024.2
20260830084115 69 119 0.0 0.0 0.00 0.00 0.00 96 1024.2
20260830084015 69 119 0.0 0.0 0.00 0.00 0.00 96 1024.2
20260830083914 69 119 0.0 0.0 0.00 0.00 0.00 96 1024.2
20260830083816 69 119 0.0 0.0 0.00 0.00 0.00 96 1024.2
20260830083714 69 119 0.0 0.0 0.00 0.00 0.00 96 1024.1
20260830083616 69 119 0.0 0.0 0.00 0.00 0.00 96 1024.2
20260830083514 69 119 0.0 0.0 0.00 0.00 0.00 96 1024.2
20260830083414 69 119 0.0 0.0 0.00 0.00 0.00 96 1024.2
20260830083315 69 119 0.0 0.0 0.00 0.00 0.00 96 1024.2
20260830083216 69 119 0.0 0.0 0.00 0.00 0.00 96 1024.2
20260830083116 69 119 0.0 0.0 0.00 0.00 0.00 96 1024.2
20260830083016 69 120 0.0 0.0 0.00 0.00 0.00 96 1024.2
20260830082915 69 120 0.0 0.0 0.00 0.00 0.00 96 1024.3
20260830082814 69 120 0.0 0.0 0.00 0.00 0.00 96 1024.4
20260830082714 69 120 0.0 0.0 0.00 0.00 0.00 96 1024.3
20260830082615 69 120 0.0 0.0 0.00 0.00 0.00 96 1024.3
20260830082514 69 120 0.0 0.0 0.00 0.00 0.00 96 1024.3
20260830082415 69 120 0.0 0.0 0.00 0.00 0.00 96 1024.4
20260830082315 69 120 0.0 0.0 0.00 0.00 0.00 96 1024.4
20260830082214 69 120 0.0 0.0 0.00 0.00 0.00 96 1024.4
20260830082115 69 121 0.0 0.0 0.00 0.00 0.00 96 1024.4
20260830082015 69 120 0.0 0.0 0.00 0.00 0.00 96 1024.3
20260830081915 69 120 0.0 0.0 0.00 0.00 0.00 96 1024.4
20260830081815 69 120 0.0 0.0 0.00 0.00 0.00 96 1024.3
20260830081715 69 120 0.0 0.0 0.00 0.00 0.00 96 1024.4
20260830081615 69 121 0.0 0.0 0.00 0.00 0.00 96 1024.4
20260830081514 69 121 0.0 0.0 0.00 0.00 0.00 96 1024.4
20260830081415 69 121 0.0 0.0 0.00 0.00 0.00 96 1024.3
20260830081315 69 120 0.0 0.0 0.00 0.00 0.00 96 1024.3
20260830081211 69 112 0.0 0.0 0.00 0.00 0.00 96 1024.3
20260830081111 69 112 0.0 0.0 0.00 0.00 0.00 96 1024.3
20260830081010 69 112 0.0 0.0 0.00 0.00 0.00 96 1024.2
20260830080910 69 112 0.0 0.0 0.00 0.00 0.00 96 1024.3
20260830080811 69 112 0.0 0.0 0.00 0.00 0.00 96 1024.2
20260830080711 69 112 0.0 0.0 0.00 0.00 0.00 96 1024.3
20260830080611 69 112 0.0 0.0 0.00 0.00 0.00 96 1024.3
20260830080511 69 112 0.0 0.0 0.00 0.00 0.00 96 1024.3
20260830080411 69 112 0.0 0.0 0.00 0.00 0.00 96 1024.2
20260830080311 69 113 0.0 0.0 0.00 0.00 0.00 96 1024.2
20260830080212 69 113 0.0 0.0 0.00 0.00 0.00 96 1024.3
20260830080110 69 113 0.0 0.0 0.00 0.00 0.00 96 1024.3
20260830080011 69 113 0.0 0.0 0.00 0.00 0.00 96 1024.3
20260830075910 69 113 0.0 0.0 0.00 0.00 0.00 96 1024.4
20260830075810 69 113 0.0 0.0 0.00 0.00 0.00 96 1024.4
20260830075711 69 113 0.0 0.0 0.00 0.00 0.00 96 1024.4
20260830075611 69 81 0.0 0.0 0.00 0.00 0.00 96 1024.4
20260830075512 69 81 0.0 0.0 0.00 0.00 0.00 96 1024.4
20260830075410 69 80 0.0 0.0 0.00 0.00 0.00 96 1024.4
20260830075312 69 80 0.0 0.0 0.00 0.00 0.00 96 1024.4
20260830075210 69 80 0.0 0.0 0.00 0.00 0.00 96 1024.4
20260830075110 69 80 0.0 0.0 0.00 0.00 0.00 96 1024.4
20260830075011 69 80 0.0 0.0 0.00 0.00 0.00 96 1024.4
20260830074910 69 80 0.0 0.0 0.00 0.00 0.00 96 1024.4
20260830074812 69 80 0.0 0.0 0.00 0.00 0.00 96 1024.3
20260830074712 69 80 0.0 0.0 0.00 0.00 0.00 96 1024.4
20260830074610 69 80 0.0 0.0 0.00 0.00 0.00 96 1024.3
20260830074511 69 80 0.0 0.0 0.00 0.00 0.00 96 1024.4
20260830074410 69 80 0.0 0.0 0.00 0.00 0.00 96 1024.4
20260830074311 69 80 0.0 0.0 0.00 0.00 0.00 96 1024.3
20260830074210 69 80 0.0 0.0 0.00 0.00 0.00 96 1024.4
20260830074112 69 80 0.0 0.0 0.00 0.00 0.00 96 1024.3
20260830074011 69 80 0.0 0.0 0.00 0.00 0.00 96 1024.3
20260830073907 69 80 0.0 0.0 0.00 0.00 0.00 96 1024.3
20260830073806 69 80 0.0 0.0 0.00 0.00 0.00 96 1024.5
20260830073708 69 80 0.0 0.0 0.00 0.00 0.00 96 1024.4
20260830073606 69 80 0.0 0.0 0.00 0.00 0.00 96 1024.5
20260830073506 69 80 0.0 0.0 0.00 0.00 0.00 96 1024.4
20260830073408 69 80 0.0 0.0 0.00 0.00 0.00 96 1024.5
20260830073306 69 80 0.0 0.0 0.00 0.00 0.00 96 1024.5
20260830073208 69 80 0.0 0.0 0.00 0.00 0.00 96 1024.4
20260830073108 69 80 0.0 0.0 0.00 0.00 0.00 96 1024.4
20260830073007 69 80 0.0 0.0 0.00 0.00 0.00 96 1024.4
20260830072907 69 80 0.0 0.0 0.00 0.00 0.00 96 1024.5
20260830072806 69 80 0.0 0.0 0.00 0.00 0.00 96 1024.4
20260830072707 69 80 0.0 0.0 0.00 0.00 0.00 96 1024.4
20260830072606 69 80 0.0 0.0 0.00 0.00 0.00 96 1024.4
20260830072508 69 80 0.0 0.0 0.00 0.00 0.00 96 1024.4
20260830072406 69 80 0.0 0.0 0.00 0.00 0.00 96 1024.4
20260830072307 69 80 0.0 0.0 0.00 0.00 0.00 96 1024.3
20260830072207 69 80 0.0 0.0 0.00 0.00 0.00 96 1024.4
20260830072106 69 80 0.0 0.0 0.00 0.00 0.00 96 1024.4
20260830072006 69 80 0.0 0.0 0.00 0.00 0.00 96 1024.4
20260830071908 69 80 0.0 0.0 0.00 0.00 0.00 96 1024.4
20260830071806 69 80 0.0 0.0 0.00 0.00 0.00 96 1024.3
20260830071707 69 80 0.0 0.0 0.00 0.00 0.00 96 1024.3
20260830071607 69 80 0.0 0.0 0.00 0.00 0.00 96 1024.3
20260830071506 69 80 0.0 0.0 0.00 0.00 0.00 96 1024.3
20260830071408 69 80 0.0 0.0 0.00 0.00 0.00 96 1024.3
20260830071306 69 80 0.0 0.0 0.00 0.00 0.00 96 1024.3
20260830071207 69 80 0.0 0.0 0.00 0.00 0.00 96 1024.3
20260830071106 69 80 0.0 0.0 0.00 0.00 0.00 96 1024.3
20260830071008 69 80 0.0 0.0 0.00 0.00 0.00 96 1024.3
20260830070906 69 80 0.0 0.0 0.00 0.00 0.00 96 1024.4
20260830070807 69 80 0.0 0.0 0.00 0.00 0.00 96 1024.3
20260830070708 69 80 0.0 0.0 0.00 0.00 0.00 96 1024.3
20260830070604 69 80 0.0 0.0 0.00 0.00 0.00 96 1024.3
20260830070502 69 80 0.0 0.0 0.00 0.00 0.00 96 1024.3
20260830070402 69 80 0.0 0.0 0.00 0.00 0.00 96 1024.4
20260830070302 69 80 0.0 0.0 0.00 0.00 0.00 96 1024.3
20260830070202 69 80 0.0 0.0 0.00 0.00 0.00 96 1024.3
20260830070003 69 80 0.0 0.0 0.00 0.00 0.00 96 1024.4
20260830065902 69 80 0.0 0.0 0.00 0.00 0.00 96 1024.3
20260830065803 69 80 0.0 0.0 0.00 0.00 0.00 96 1024.4
20260830065700 69 80 0.0 0.0 0.00 0.00 0.00 96 1024.4
20260830065601 69 80 0.0 0.0 0.00 0.00 0.00 96 1024.4
20260830065500 69 80 0.0 0.0 0.00 0.00 0.00 96 1024.4
20260830065359 69 80 0.0 0.0 0.00 0.00 0.00 96 1024.4
20260830065256 69 80 0.0 0.0 0.00 0.00 0.00 96 1024.5
20260830065157 69 80 0.0 0.0 0.00 0.00 0.00 96 1024.4
20260830065055 69 80 0.0 0.0 0.00 0.00 0.00 96 1024.5
20260830064955 69 80 0.0 0.0 0.00 0.00 0.00 96 1024.4
20260830064855 69 80 0.0 0.0 0.00 0.00 0.00 96 1024.5
20260830064752 69 80 0.0 1.0 0.00 0.00 0.00 96 1024.5
20260830064653 69 80 0.0 1.0 0.00 0.00 0.00 96 1024.4
20260830064551 69 80 0.0 2.0 0.00 0.00 0.00 96 1024.5
20260830064449 69 80 0.0 2.0 0.00 0.00 0.00 96 1024.6
20260830064345 69 80 0.0 2.0 0.00 0.00 0.00 96 1024.5
20260830064242 69 80 0.0 2.0 0.00 0.00 0.00 96 1024.5
20260830064143 69 80 0.0 2.0 0.00 0.00 0.00 96 1024.4
20260830064041 69 80 0.0 2.0 0.00 0.00 0.00 96 1024.5
20260830063938 69 80 0.0 2.0 0.00 0.00 0.00 96 1024.5
20260830063839 69 80 0.0 2.0 0.00 0.00 0.00 96 1024.5
20260830063736 69 80 0.0 2.0 0.00 0.00 0.00 96 1024.6
20260830063637 69 80 0.0 2.0 0.00 0.00 0.00 96 1024.6
20260830063535 69 80 0.0 2.0 0.00 0.00 0.00 96 1024.6
20260830063433 69 80 0.0 2.0 0.00 0.00 0.00 96 1024.6
20260830063331 69 80 0.0 1.0 0.00 0.00 0.00 96 1024.5
20260830063232 69 80 0.0 1.0 0.00 0.00 0.00 96 1024.6
20260830063130 69 80 0.0 1.0 0.00 0.00 0.00 96 1024.6
20260830063028 69 80 0.0 0.0 0.00 0.00 0.00 96 1024.6
20260830062927 69 80 0.0 0.0 0.00 0.00 0.00 96 1024.6
20260830062822 70 80 0.0 0.0 0.00 0.00 0.00 96 1024.6
20260830062722 69 80 0.0 1.0 0.00 0.00 0.00 96 1024.6
20260830062621 69 80 0.0 1.0 0.00 0.00 0.00 96 1024.7
20260830062518 70 80 0.0 1.0 0.00 0.00 0.00 96 1024.6
20260830062416 69 80 0.0 1.0 0.00 0.00 0.00 96 1024.6
20260830062310 70 80 0.0 2.0 0.00 0.00 0.00 96 1024.6
20260830062211 69 80 0.0 2.0 0.00 0.00 0.00 96 1024.7
20260830062111 70 80 1.0 2.0 0.00 0.00 0.00 96 1024.6
20260830062011 70 80 1.0 2.0 0.00 0.00 0.00 96 1024.7
20260830061911 70 80 1.0 2.0 0.00 0.00 0.00 96 1024.6
20260830061804 70 80 1.0 2.0 0.00 0.00 0.00 96 1024.6
20260830061705 70 80 1.0 2.0 0.00 0.00 0.00 96 1024.7
20260830061604 70 80 0.0 2.0 0.00 0.00 0.00 96 1024.6
20260830061505 70 80 0.0 2.0 0.00 0.00 0.00 96 1024.6
20260830061405 70 80 0.0 2.0 0.00 0.00 0.00 96 1024.7
20260830061302 70 80 0.0 2.0 0.00 0.00 0.00 96 1024.8
20260830061159 70 80 0.0 2.0 0.00 0.00 0.00 96 1024.7
20260830061058 70 80 0.0 1.0 0.00 0.00 0.00 96 1024.7
20260830060956 70 80 0.0 1.0 0.00 0.00 0.00 96 1024.8
20260830060855 70 80 0.0 1.0 0.00 0.00 0.00 96 1024.8
20260830060751 70 80 0.0 1.0 0.00 0.00 0.00 96 1024.7
20260830060648 70 80 0.0 2.0 0.00 0.00 0.00 96 1024.7
20260830060548 70 80 0.0 2.0 0.00 0.00 0.00 96 1024.8
20260830060449 70 80 0.0 2.0 0.00 0.00 0.00 96 1024.7
20260830060348 70 80 0.0 2.0 0.00 0.00 0.00 96 1024.7
20260830060249 70 80 1.0 2.0 0.00 0.00 0.00 96 1024.7
20260830060147 70 80 1.0 2.0 0.00 0.00 0.00 96 1024.7
20260830060048 70 80 1.0 2.0 0.00 0.00 0.00 96 1024.7
20260830055944 70 80 1.0 2.0 0.00 0.00 0.00 96 1024.8
20260830055843 70 80 1.0 2.0 0.00 0.00 0.00 96 1024.7
20260830055739 70 80 1.0 3.0 0.00 0.00 0.00 96 1024.8
20260830055636 70 80 1.0 3.0 0.00 0.00 0.00 96 1024.8
20260830055534 70 80 1.0 3.0 0.00 0.00 0.00 96 1024.8
20260830055435 70 80 1.0 3.0 0.00 0.00 0.00 96 1024.8
20260830055332 70 80 1.0 3.0 0.00 0.00 0.00 96 1024.8
20260830055226 70 80 1.0 3.0 0.00 0.00 0.00 96 1024.8
20260830055122 70 80 1.0 3.0 0.00 0.00 0.00 96 1024.7
20260830055024 70 80 1.0 3.0 0.00 0.00 0.00 96 1024.9
20260830054921 70 80 1.0 3.0 0.00 0.00 0.00 96 1024.8
20260830054819 70 80 1.0 3.0 0.00 0.00 0.00 96 1024.9
20260830054718 70 80 1.0 2.0 0.00 0.00 0.00 96 1024.9
20260830054616 70 80 1.0 2.0 0.00 0.00 0.00 96 1024.9
20260830054517 70 80 1.0 2.0 0.00 0.00 0.00 96 1024.9
20260830054414 70 114 1.0 2.0 0.00 0.00 0.00 96 1024.9
20260830054312 70 114 1.0 2.0 0.00 0.00 0.00 96 1024.9
20260830054213 70 114 1.0 2.0 0.00 0.00 0.00 96 1024.9
20260830054113 70 114 1.0 2.0 0.00 0.00 0.00 96 1024.9
20260830054013 70 114 1.0 2.0 0.00 0.00 0.00 96 1024.9
20260830053913 70 114 1.0 2.0 0.00 0.00 0.00 96 1025.1
20260830053811 70 114 1.0 2.0 0.00 0.00 0.00 96 1024.9
20260830053703 70 114 1.0 2.0 0.00 0.00 0.00 96 1025.1
20260830053604 70 114 1.0 2.0 0.00 0.00 0.00 96 1024.9
20260830053504 70 114 1.0 2.0 0.00 0.00 0.00 96 1024.9
20260830053404 70 114 1.0 2.0 0.00 0.00 0.00 96 1024.9
20260830053304 70 114 1.0 2.0 0.00 0.00 0.00 96 1024.9
20260830053202 70 114 1.0 2.0 0.00 0.00 0.00 96 1025.1
20260830053104 70 114 1.0 2.0 0.00 0.00 0.00 96 1025.1
20260830053004 70 114 1.0 2.0 0.00 0.00 0.00 96 1025.1
20260830052902 70 114 1.0 2.0 0.00 0.00 0.00 96 1025.1
20260830052802 70 114 0.0 2.0 0.00 0.00 0.00 96 1024.9
20260830052702 70 117 0.0 2.0 0.00 0.00 0.00 96 1024.9
20260830052602 70 118 0.0 2.0 0.00 0.00 0.00 96 1025.1
20260830052502 70 118 0.0 2.0 0.00 0.00 0.00 96 1024.9
20260830052403 70 118 0.0 2.0 0.00 0.00 0.00 96 1024.9
20260830052301 70 118 0.0 2.0 0.00 0.00 0.00 96 1024.9
20260830052200 70 118 0.0 1.0 0.00 0.00 0.00 96 1024.9
20260830052059 70 118 0.0 1.0 0.00 0.00 0.00 96 1024.9
20260830051958 70 118 0.0 1.0 0.00 0.00 0.00 96 1024.9
20260830051856 70 118 0.0 1.0 0.00 0.00 0.00 96 1024.9
20260830051757 70 118 0.0 3.0 0.00 0.00 0.00 96 1024.8
20260830051654 70 118 1.0 3.0 0.00 0.00 0.00 96 1024.9
20260830051552 70 118 1.0 3.0 0.00 0.00 0.00 96 1024.9
20260830051454 70 118 1.0 3.0 0.00 0.00 0.00 96 1025.1
20260830051351 70 118 1.0 3.0 0.00 0.00 0.00 95 1025.1
20260830051249 70 118 1.0 3.0 0.00 0.00 0.00 95 1024.9
20260830051148 70 118 1.0 3.0 0.00 0.00 0.00 96 1025.1
20260830051046 70 118 2.0 3.0 0.00 0.00 0.00 96 1024.9
20260830050944 70 118 2.0 9.0 0.00 0.00 0.00 95 1025.1
20260830050844 70 117 2.0 9.0 0.00 0.00 0.00 95 1025.2
20260830050744 70 117 3.0 9.0 0.00 0.00 0.00 95 1025.1
20260830050645 70 117 3.0 9.0 0.00 0.00 0.00 95 1025.1
20260830050544 70 136 3.0 9.0 0.00 0.00 0.00 95 1025.2
20260830050438 70 136 4.0 9.0 0.00 0.00 0.00 95 1025.1
20260830050338 70 136 4.0 9.0 0.00 0.00 0.00 95 1025.1
20260830050238 70 102 4.0 9.0 0.00 0.00 0.00 95 1025.1
20260830050139 70 125 4.0 9.0 0.00 0.00 0.00 95 1025.1
20260830050039 70 140 4.0 9.0 0.00 0.00 0.00 95 1025.1
20260830045934 70 150 4.0 8.0 0.00 0.00 0.00 95 1025.2
20260830045834 70 123 4.0 8.0 0.00 0.00 0.00 95 1025.2
20260830045733 70 93 4.0 8.0 0.00 0.00 0.00 95 1025.2
20260830045635 70 122 4.0 8.0 0.00 0.00 0.00 95 1025.2
20260830045532 70 141 4.0 8.0 0.00 0.00 0.00 95 1025.2
20260830045426 70 124 4.0 9.0 0.00 0.00 0.00 95 1025.2
20260830045326 70 148 5.0 12.0 0.00 0.00 0.00 95 1025.2
20260830045223 70 113 5.0 12.0 0.00 0.00 0.00 95 1025.2
20260830045125 70 119 5.0 12.0 0.00 0.00 0.00 95 1025.1
20260830045023 70 115 5.0 12.0 0.00 0.00 0.00 95 1025.1
20260830044917 70 110 5.0 12.0 0.00 0.00 0.00 95 1025.1
20260830044816 70 167 5.0 12.0 0.00 0.00 0.00 95 1025.1